CW3318 Weather Reports


Display with metric or nautical units.
time (UTC)temp
F
wind
direction
speed
MPH
gust
MPH
rain 1hr
in
rain 24hr
in
rain mn
in
humidity
%
barometer
mb
20260905234756 67 277 13.0 18.0 0.00 0.07 0.02 44 1009.3
20260905234654 67 300 11.0 18.0 0.00 0.07 0.02 44 1009.4
20260905234607 67 277 11.0 18.0 0.00 0.07 0.02 44 1009.4
20260905234443 67 312 12.0 18.0 0.00 0.07 0.02 44 1009.3
20260905234408 67 296 10.0 18.0 0.00 0.07 0.02 43 1009.4
20260905234243 67 298 9.0 15.0 0.00 0.07 0.02 43 1009.3
20260905234151 67 311 7.0 15.0 0.00 0.07 0.02 43 1009.3
20260905234116 67 324 7.0 15.0 0.00 0.07 0.02 43 1009.3
20260905233952 67 339 8.0 15.0 0.00 0.07 0.02 43 1009.3
20260905233903 67 302 9.0 15.0 0.00 0.07 0.02 43 1009.3
20260905233759 67 325 8.0 15.0 0.00 0.07 0.02 43 1009.3
20260905233657 67 304 5.0 13.0 0.00 0.07 0.02 43 1009.3
20260905233601 67 305 5.0 13.0 0.00 0.07 0.02 43 1009.3
20260905233457 67 309 4.0 14.0 0.00 0.07 0.02 43 1009.3
20260905233405 67 309 4.0 14.0 0.00 0.07 0.02 43 1009.3
20260905233245 67 15 7.0 15.0 0.00 0.07 0.02 43 1009.3
20260905233142 67 337 7.0 15.0 0.00 0.07 0.02 43 1009.3
20260905233110 67 317 7.0 15.0 0.00 0.07 0.02 43 1009.3
20260905232945 68 307 7.0 15.0 0.00 0.07 0.02 43 1009.3
20260905232848 68 302 6.0 15.0 0.00 0.07 0.02 43 1009.3
20260905232744 68 353 8.0 15.0 0.00 0.07 0.02 42 1009.4
20260905232712 68 341 9.0 15.0 0.00 0.07 0.02 42 1009.4
20260905232443 68 5 8.0 16.0 0.00 0.07 0.02 43 1009.4
20260905232414 68 329 5.0 16.0 0.00 0.07 0.02 43 1009.4
20260905232259 68 306 5.0 16.0 0.00 0.07 0.02 42 1009.4
20260905232158 68 302 7.0 16.0 0.00 0.07 0.02 42 1009.5
20260905232053 68 318 9.0 16.0 0.00 0.07 0.02 42 1009.4
20260905232000 68 303 11.0 16.0 0.00 0.07 0.02 41 1009.5
20260905231856 68 312 9.0 16.0 0.00 0.07 0.02 41 1009.5
20260905231801 69 308 8.0 16.0 0.00 0.07 0.02 42 1009.5
20260905231644 69 315 9.0 16.0 0.00 0.07 0.02 41 1009.5
20260905231609 69 287 9.0 16.0 0.00 0.07 0.02 41 1009.5
20260905231505 69 277 10.0 16.0 0.00 0.07 0.02 41 1009.6
20260905231350 69 299 11.0 16.0 0.00 0.07 0.02 42 1009.6
20260905231316 69 306 10.0 16.0 0.00 0.07 0.02 42 1009.5
20260905231154 69 302 8.0 12.0 0.00 0.07 0.02 42 1009.5
20260905231100 69 331 6.0 12.0 0.00 0.07 0.02 42 1009.6
20260905231016 68 325 4.0 9.0 0.00 0.07 0.02 41 1009.6
20260905230906 68 325 4.0 11.0 0.00 0.07 0.02 42 1009.6
20260905230744 68 341 4.0 12.0 0.00 0.07 0.02 41 1009.6
20260905230710 68 341 4.0 12.0 0.00 0.07 0.02 41 1009.6
20260905230608 68 339 4.0 12.0 0.00 0.07 0.02 41 1009.6
20260905230532 68 333 3.0 12.0 0.00 0.07 0.02 41 1009.6
20260905230349 68 333 5.0 12.0 0.00 0.07 0.02 42 1009.5
20260905230300 69 348 6.0 12.0 0.00 0.07 0.02 42 1009.6
20260905230213 69 348 6.0 12.0 0.00 0.07 0.02 41 1009.5
20260905230056 69 355 8.0 12.0 0.00 0.08 0.02 41 1009.5
20260905225952 69 322 8.0 12.0 0.00 0.08 0.02 41 1009.6
20260905225859 69 330 7.0 12.0 0.00 0.08 0.02 41 1009.6
20260905225756 69 311 6.0 12.0 0.00 0.08 0.02 41 1009.6
20260905225654 69 308 5.0 12.0 0.00 0.08 0.02 41 1009.6
20260905225603 69 306 5.0 11.0 0.00 0.08 0.02 41 1009.6
20260905225501 69 305 5.0 11.0 0.00 0.08 0.02 40 1009.5
20260905225407 69 300 4.0 11.0 0.00 0.08 0.02 40 1009.5
20260905225243 69 302 6.0 11.0 0.00 0.08 0.02 40 1009.6
20260905225150 69 303 6.0 11.0 0.00 0.08 0.02 40 1009.6
20260905225046 69 303 4.0 11.0 0.00 0.08 0.02 40 1009.6
20260905224943 69 349 1.0 9.0 0.00 0.08 0.02 40 1009.5
20260905224854 69 350 0.0 9.0 0.00 0.08 0.02 39 1009.6
20260905224752 69 350 0.0 9.0 0.00 0.08 0.02 39 1009.5
20260905224701 69 350 1.0 9.0 0.00 0.08 0.02 38 1009.6
20260905224557 69 350 3.0 11.0 0.00 0.08 0.02 38 1009.6
20260905224523 70 350 5.0 11.0 0.00 0.08 0.02 39 1009.6
20260905224359 70 350 5.0 11.0 0.00 0.08 0.02 40 1009.5
20260905224305 70 348 4.0 11.0 0.00 0.08 0.02 39 1009.5
20260905224148 70 355 4.0 11.0 0.00 0.08 0.02 39 1009.5
20260905224052 70 355 5.0 11.0 0.00 0.08 0.02 39 1009.5
20260905223949 70 329 5.0 11.0 0.00 0.08 0.02 41 1009.5
20260905223916 70 348 6.0 11.0 0.00 0.08 0.02 41 1009.5
20260905223753 70 5 7.0 11.0 0.00 0.08 0.02 41 1009.5
20260905223659 70 333 7.0 11.0 0.00 0.08 0.02 40 1009.5
20260905223604 69 338 7.0 11.0 0.00 0.08 0.02 42 1009.5
20260905223505 69 337 6.0 10.0 0.00 0.08 0.02 41 1009.5
20260905223431 69 354 5.0 9.0 0.00 0.08 0.02 41 1009.5
20260905223248 69 331 4.0 9.0 0.00 0.08 0.02 40 1009.5
20260905223146 69 329 4.0 9.0 0.00 0.08 0.02 41 1009.6
20260905223052 68 330 4.0 9.0 0.00 0.08 0.02 42 1009.6
20260905222948 68 354 4.0 9.0 0.00 0.08 0.02 42 1009.6
20260905222856 68 354 4.0 9.0 0.00 0.08 0.02 41 1009.6
20260905222816 68 352 4.0 14.0 0.00 0.08 0.02 41 1009.6
20260905222702 69 15 4.0 14.0 0.00 0.08 0.02 41 1009.6
20260905222558 69 27 5.0 14.0 0.00 0.08 0.02 42 1009.7
20260905222505 69 27 6.0 14.0 0.00 0.08 0.02 42 1009.7
20260905222342 69 27 4.0 14.0 0.00 0.08 0.02 42 1009.7
20260905222259 69 42 4.0 14.0 0.00 0.08 0.02 42 1009.6
20260905222151 69 34 5.0 14.0 0.00 0.08 0.02 42 1009.7
20260905222047 69 338 6.0 14.0 0.00 0.08 0.02 42 1009.6
20260905222014 69 345 6.0 14.0 0.00 0.08 0.02 41 1009.7
20260905221850 69 341 6.0 10.0 0.00 0.08 0.02 41 1009.7
20260905221815 69 335 4.0 10.0 0.00 0.08 0.02 41 1009.7
20260905221652 69 305 3.0 5.0 0.00 0.08 0.02 40 1009.7
20260905221557 69 302 3.0 7.0 0.00 0.08 0.02 40 1009.6
20260905221455 68 302 3.0 7.0 0.00 0.08 0.02 40 1009.6
20260905221344 68 302 2.0 8.0 0.00 0.08 0.02 40 1009.6
20260905221311 68 298 2.0 8.0 0.00 0.08 0.02 40 1009.6
20260905221151 68 298 3.0 8.0 0.00 0.08 0.02 40 1009.6
20260905221047 68 298 2.0 10.0 0.00 0.08 0.02 40 1009.6
20260905220952 68 296 3.0 10.0 0.00 0.08 0.02 42 1009.7
20260905220849 68 296 4.0 10.0 0.00 0.08 0.02 40 1009.6
20260905220750 68 295 5.0 10.0 0.00 0.08 0.02 40 1009.7
20260905220719 68 295 4.0 10.0 0.00 0.08 0.02 40 1009.7
20260905220602 68 294 5.0 10.0 0.00 0.08 0.02 41 1009.7
20260905220520 68 291 5.0 10.0 0.00 0.08 0.02 40 1009.7
20260905220404 69 304 5.0 10.0 0.00 0.08 0.02 40 1009.7
20260905220310 69 311 6.0 10.0 0.00 0.08 0.02 40 1009.7
20260905220203 69 325 6.0 9.0 0.00 0.08 0.02 40 1009.7
20260905220108 69 331 4.0 9.0 0.00 0.08 0.02 39 1009.7
20260905215946 69 335 2.0 8.0 0.00 0.08 0.02 40 1009.7
20260905215852 69 95 2.0 8.0 0.00 0.08 0.02 40 1009.7
20260905215749 70 98 2.0 8.0 0.00 0.08 0.02 39 1009.7
20260905215649 70 98 3.0 8.0 0.00 0.08 0.02 40 1009.8
20260905215554 70 97 3.0 8.0 0.00 0.08 0.02 41 1009.7
20260905215449 70 159 2.0 9.0 0.00 0.08 0.02 40 1009.7
20260905215354 70 271 1.0 9.0 0.00 0.08 0.02 41 1009.8
20260905215314 70 54 0.0 9.0 0.00 0.08 0.02 39 1009.8
20260905215200 70 53 1.0 9.0 0.00 0.08 0.02 39 1009.8
20260905215055 70 53 2.0 12.0 0.00 0.08 0.02 42 1009.8
20260905215002 70 53 2.0 12.0 0.00 0.08 0.02 41 1009.9
20260905214900 69 56 3.0 12.0 0.00 0.08 0.02 41 1009.8
20260905214806 69 55 4.0 12.0 0.00 0.08 0.02 41 1009.8
20260905214650 69 81 4.0 12.0 0.00 0.08 0.02 43 1009.9
20260905214546 69 44 4.0 12.0 0.00 0.08 0.02 41 1009.8
20260905214452 69 84 5.0 12.0 0.00 0.08 0.02 41 1009.9
20260905214350 70 45 5.0 12.0 0.00 0.08 0.02 41 1009.9
20260905214247 70 15 5.0 12.0 0.00 0.08 0.02 40 1010.0
20260905214215 70 5 4.0 9.0 0.00 0.08 0.02 41 1010.0
20260905214059 70 33 3.0 6.0 0.00 0.08 0.02 44 1009.9
20260905214000 69 360 1.0 6.0 0.00 0.08 0.02 43 1009.9
20260905213907 69 359 1.0 6.0 0.00 0.08 0.02 41 1009.9
20260905213743 69 359 3.0 6.0 0.00 0.08 0.02 43 1010.0
20260905213710 69 359 3.0 6.0 0.00 0.08 0.02 43 1010.0
20260905213545 68 358 4.0 6.0 0.00 0.08 0.02 42 1010.0
20260905213443 68 21 2.0 6.0 0.00 0.08 0.02 43 1010.0
20260905213348 69 315 2.0 6.0 0.00 0.08 0.02 43 1010.0
20260905213248 68 30 2.0 9.0 0.00 0.08 0.02 42 1010.1
20260905213156 68 30 2.0 9.0 0.00 0.08 0.02 44 1010.1
20260905213050 68 30 1.0 9.0 0.00 0.08 0.02 44 1010.0
20260905213017 68 30 2.0 9.0 0.00 0.08 0.02 44 1010.1
20260905212854 68 30 2.0 9.0 0.00 0.08 0.02 44 1010.2
20260905212800 67 30 3.0 9.0 0.00 0.08 0.02 44 1010.2
20260905212657 67 31 4.0 10.0 0.00 0.08 0.02 45 1010.1
20260905212611 67 29 4.0 10.0 0.00 0.08 0.02 45 1010.1
20260905212444 66 35 4.0 10.0 0.00 0.08 0.02 45 1010.2
20260905212401 66 341 3.0 10.0 0.00 0.08 0.02 45 1010.1
20260905212308 66 336 2.0 10.0 0.00 0.08 0.02 45 1010.1
20260905212145 66 335 2.0 11.0 0.00 0.08 0.02 44 1010.2
20260905212112 66 335 2.0 11.0 0.00 0.08 0.02 44 1010.2
20260905211952 66 337 4.0 11.0 0.00 0.08 0.02 44 1010.2
20260905211849 66 337 5.0 11.0 0.00 0.08 0.02 45 1010.2
20260905211755 67 294 5.0 11.0 0.00 0.08 0.02 45 1010.2
20260905211655 67 323 5.0 11.0 0.00 0.08 0.02 43 1010.2
20260905211551 67 315 5.0 11.0 0.00 0.08 0.02 43 1010.2
20260905211458 67 315 6.0 11.0 0.00 0.08 0.02 44 1010.2
20260905211359 67 316 6.0 13.0 0.00 0.08 0.02 44 1010.2
20260905211244 68 303 6.0 13.0 0.00 0.08 0.02 44 1010.2
20260905211211 68 337 6.0 13.0 0.00 0.08 0.02 43 1010.2
20260905211048 68 353 5.0 13.0 0.00 0.08 0.02 44 1010.3
20260905210945 68 10 3.0 13.0 0.00 0.08 0.02 43 1010.2
20260905210851 68 10 3.0 13.0 0.00 0.08 0.02 45 1010.3
20260905210748 68 10 3.0 13.0 0.00 0.08 0.02 44 1010.3
20260905210652 68 19 6.0 13.0 0.00 0.08 0.02 45 1010.3
20260905210556 68 10 6.0 13.0 0.00 0.08 0.02 45 1010.2
20260905210523 68 359 5.0 10.0 0.00 0.08 0.02 45 1010.3
20260905210359 68 350 5.0 10.0 0.00 0.08 0.02 45 1010.3
20260905210336 68 5 4.0 10.0 0.00 0.08 0.02 45 1010.3
20260905210158 67 23 3.0 7.0 0.00 0.08 0.02 47 1010.3
20260905210043 67 63 3.0 7.0 0.00 0.08 0.02 46 1010.3
20260905205944 67 64 3.0 7.0 0.00 0.08 0.02 49 1010.3
20260905205910 66 20 2.0 8.0 0.00 0.08 0.02 48 1010.3
20260905205746 66 252 2.0 8.0 0.00 0.08 0.02 48 1010.3
20260905205653 66 252 3.0 8.0 0.00 0.08 0.02 45 1010.3
20260905205556 66 252 3.0 8.0 0.00 0.08 0.02 45 1010.3
20260905205451 66 351 2.0 8.0 0.00 0.08 0.02 46 1010.3
20260905205356 66 351 2.0 8.0 0.00 0.08 0.02 45 1010.4
20260905205253 67 351 3.0 8.0 0.00 0.08 0.02 45 1010.4
20260905205204 67 352 3.0 8.0 0.00 0.08 0.02 46 1010.4
20260905205059 67 352 4.0 8.0 0.00 0.08 0.02 47 1010.3
20260905205002 66 349 4.0 9.0 0.00 0.08 0.02 47 1010.3
20260905204858 66 346 4.0 9.0 0.00 0.08 0.02 47 1010.4
20260905204825 66 346 4.0 9.0 0.00 0.08 0.02 47 1010.4
20260905204701 66 345 2.0 9.0 0.00 0.08 0.02 47 1010.4
20260905204607 66 310 1.0 12.0 0.00 0.08 0.02 48 1010.4
20260905204447 66 5 3.0 12.0 0.00 0.08 0.02 47 1010.5
20260905204414 66 5 4.0 12.0 0.00 0.08 0.02 46 1010.4
20260905204251 66 356 4.0 12.0 0.00 0.08 0.02 46 1010.5
20260905204150 66 357 4.0 12.0 0.00 0.08 0.02 48 1010.5
20260905204053 66 5 2.0 12.0 0.00 0.08 0.02 48 1010.5
20260905204020 66 359 3.0 12.0 0.00 0.08 0.02 46 1010.5
20260905203856 66 358 6.0 12.0 0.00 0.08 0.02 48 1010.6
20260905203806 66 1 7.0 12.0 0.00 0.08 0.02 48 1010.6
20260905203646 66 358 4.0 10.0 0.00 0.08 0.02 47 1010.6
20260905203601 66 15 3.0 10.0 0.00 0.08 0.02 45 1010.6
20260905203507 67 39 2.0 9.0 0.00 0.08 0.02 45 1010.6
20260905203344 67 39 4.0 9.0 0.00 0.08 0.02 48 1010.6
20260905203242 67 41 4.0 9.0 0.00 0.08 0.02 48 1010.7
20260905203210 67 27 3.0 9.0 0.00 0.08 0.02 47 1010.6
20260905203048 66 331 3.0 9.0 0.00 0.08 0.02 46 1010.5
20260905202954 67 331 3.0 9.0 0.00 0.08 0.02 47 1010.6
20260905202852 67 331 4.0 9.0 0.00 0.08 0.02 47 1010.6
20260905202758 66 332 4.0 9.0 0.00 0.08 0.02 48 1010.6
20260905202657 66 346 4.0 8.0 0.00 0.08 0.02 49 1010.6
20260905202601 66 359 3.0 8.0 0.00 0.08 0.02 49 1010.7
20260905202442 65 360 1.0 8.0 0.00 0.08 0.02 48 1010.7
20260905202409 65 333 1.0 6.0 0.00 0.08 0.02 48 1010.7
20260905202247 65 333 3.0 6.0 0.00 0.08 0.02 48 1010.7
20260905202147 65 333 3.0 6.0 0.00 0.08 0.02 50 1010.6
20260905202112 65 331 2.0 5.0 0.00 0.08 0.02 49 1010.6
20260905202018 65 208 1.0 5.0 0.00 0.08 0.02 51 1010.7
20260905201855 64 207 2.0 5.0 0.00 0.08 0.02 51 1010.6
20260905201804 64 207 3.0 5.0 0.00 0.08 0.02 50 1010.6
20260905201703 64 185 2.0 5.0 0.00 0.08 0.02 50 1010.7
20260905201559 64 185 2.0 5.0 0.00 0.08 0.02 52 1010.7
20260905201505 64 185 2.0 5.0 0.00 0.08 0.02 49 1010.7
20260905201402 64 185 2.0 5.0 0.00 0.08 0.02 49 1010.7
20260905201308 64 184 3.0 5.0 0.00 0.08 0.02 51 1010.7
20260905201149 64 23 3.0 5.0 0.00 0.08 0.02 49 1010.6
20260905201110 64 5 4.0 5.0 0.00 0.08 0.02 49 1010.6
20260905200946 64 357 3.0 6.0 0.00 0.08 0.02 51 1010.7
20260905200843 64 359 2.0 6.0 0.00 0.08 0.02 51 1010.7
20260905200810 64 360 1.0 6.0 0.00 0.08 0.02 50 1010.7
20260905200709 64 359 2.0 6.0 0.00 0.08 0.02 49 1010.8
20260905200552 64 359 3.0 6.0 0.00 0.08 0.02 50 1010.8
20260905200510 64 348 2.0 6.0 0.00 0.08 0.02 51 1010.7
20260905200400 64 347 2.0 6.0 0.00 0.08 0.02 51 1010.7
20260905200308 64 347 3.0 7.0 0.00 0.08 0.02 52 1010.7
20260905200221 64 347 3.0 7.0 0.00 0.08 0.02 50 1010.7
20260905200108 64 350 3.0 7.0 0.00 0.08 0.02 52 1010.7
20260905200000 64 318 2.0 7.0 0.00 0.08 0.02 53 1010.8
20260905195844 64 297 1.0 7.0 0.00 0.08 0.02 51 1010.8
20260905195801 64 296 0.0 7.0 0.00 0.08 0.02 50 1010.8
20260905195653 64 192 1.0 7.0 0.00 0.08 0.02 52 1010.8
20260905195556 64 192 3.0 7.0 0.00 0.08 0.02 52 1010.8
20260905195454 64 192 3.0 8.0 0.00 0.08 0.02 52 1010.8
20260905195420 64 259 2.0 8.0 0.00 0.08 0.02 55 1010.9
20260905195255 64 260 3.0 8.0 0.00 0.08 0.02 52 1010.9
20260905195202 64 260 4.0 8.0 0.00 0.08 0.02 56 1010.9
20260905195058 64 260 4.0 8.0 0.00 0.08 0.02 54 1010.9
20260905194955 64 264 2.0 8.0 0.00 0.08 0.02 55 1010.9
20260905194844 64 267 3.0 8.0 0.00 0.08 0.02 53 1010.9
20260905194801 64 267 4.0 8.0 0.00 0.08 0.02 52 1011.0
20260905194710 64 267 4.0 8.0 0.00 0.08 0.02 52 1011.0
20260905194605 64 274 3.0 9.0 0.00 0.08 0.02 51 1011.0
20260905194451 64 274 4.0 9.0 0.00 0.08 0.02 50 1011.0
20260905194347 65 273 4.0 9.0 0.00 0.08 0.02 50 1011.1
20260905194312 65 273 4.0 9.0 0.00 0.08 0.02 50 1011.0
20260905194153 66 267 3.0 9.0 0.00 0.08 0.02 52 1011.1
20260905194059 66 267 4.0 9.0 0.00 0.08 0.02 52 1011.1
20260905193957 66 267 5.0 9.0 0.00 0.08 0.02 52 1011.2
20260905193904 65 269 5.0 9.0 0.00 0.08 0.02 53 1011.2
20260905193801 65 269 5.0 9.0 0.00 0.08 0.02 53 1011.2
20260905193706 65 242 5.0 8.0 0.00 0.08 0.02 56 1011.2
20260905193545 65 177 4.0 8.0 0.00 0.08 0.02 54 1011.2
20260905193443 65 193 4.0 8.0 0.00 0.08 0.02 55 1011.1
20260905193350 65 196 5.0 8.0 0.00 0.08 0.02 53 1011.1
20260905193248 65 202 6.0 7.0 0.00 0.08 0.02 54 1011.1
20260905193147 64 236 5.0 8.0 0.00 0.08 0.02 53 1011.1
20260905193052 64 252 4.0 8.0 0.00 0.08 0.02 54 1011.1
20260905192949 64 150 4.0 8.0 0.00 0.08 0.02 52 1011.1
20260905192857 64 150 4.0 8.0 0.00 0.08 0.02 53 1011.2
20260905192824 64 150 3.0 8.0 0.00 0.08 0.02 57 1011.1
20260905192658 64 146 4.0 8.0 0.00 0.08 0.02 57 1011.1
20260905192553 64 146 4.0 8.0 0.00 0.08 0.02 53 1011.1
20260905192520 64 144 3.0 8.0 0.00 0.08 0.02 54 1011.2
20260905192405 64 138 2.0 8.0 0.00 0.08 0.02 53 1011.2
20260905192243 64 138 3.0 8.0 0.00 0.08 0.02 53 1011.2
20260905192144 64 138 3.0 8.0 0.00 0.08 0.02 53 1011.2
20260905192110 64 139 3.0 8.0 0.00 0.08 0.02 54 1011.2
20260905191947 64 138 3.0 8.0 0.00 0.08 0.02 56 1011.1
20260905191852 64 138 4.0 8.0 0.00 0.08 0.02 57 1011.1
20260905191820 64 128 4.0 7.0 0.00 0.08 0.02 57 1011.2
20260905191656 64 128 3.0 7.0 0.00 0.08 0.02 59 1011.2
20260905191552 64 128 1.0 6.0 0.00 0.08 0.02 59 1011.2
20260905191516 63 128 0.0 6.0 0.00 0.08 0.02 58 1011.2
20260905191406 63 128 0.0 6.0 0.00 0.08 0.02 58 1011.2
20260905191243 63 128 1.0 6.0 0.00 0.08 0.02 57 1011.2
20260905191151 63 128 2.0 6.0 0.00 0.08 0.02 57 1011.2
20260905191047 63 128 2.0 6.0 0.00 0.08 0.02 58 1011.2
20260905190944 63 128 3.0 6.0 0.00 0.08 0.02 59 1011.2
20260905190850 63 129 2.0 6.0 0.00 0.08 0.02 59 1011.2
20260905190751 63 130 2.0 6.0 0.00 0.08 0.02 59 1011.2
20260905190659 63 130 3.0 6.0 0.00 0.08 0.02 59 1011.2
20260905190604 63 130 4.0 6.0 0.00 0.08 0.02 62 1011.3
20260905190500 63 130 3.0 6.0 0.00 0.08 0.02 61 1011.3
20260905190405 63 131 3.0 6.0 0.00 0.08 0.02 61 1011.3
20260905190321 63 131 3.0 6.0 0.00 0.08 0.02 61 1011.3
20260905190146 62 132 3.0 6.0 0.00 0.08 0.02 61 1011.3
20260905190047 62 133 3.0 6.0 0.00 0.08 0.02 61 1011.3
20260905185948 62 133 2.0 7.0 0.00 0.08 0.02 62 1011.3
20260905185854 62 132 1.0 7.0 0.00 0.08 0.02 62 1011.4
20260905185811 62 132 0.0 7.0 0.00 0.08 0.02 63 1011.3
20260905185717 62 132 1.0 7.0 0.00 0.08 0.02 63 1011.3
20260905185602 62 132 1.0 7.0 0.00 0.08 0.02 62 1011.4
20260905185500 62 132 2.0 7.0 0.00 0.08 0.02 62 1011.4
20260905185357 61 132 2.0 7.0 0.00 0.08 0.02 63 1011.4
20260905185306 61 132 3.0 7.0 0.00 0.08 0.02 62 1011.4
20260905185152 61 132 4.0 7.0 0.00 0.08 0.02 63 1011.4
20260905185048 61 133 4.0 7.0 0.00 0.08 0.02 64 1011.4
20260905185015 61 133 3.0 7.0 0.00 0.08 0.02 66 1011.4
20260905184851 61 134 2.0 6.0 0.00 0.08 0.02 64 1011.4
20260905184758 61 133 1.0 6.0 0.00 0.08 0.02 64 1011.4
20260905184656 61 133 1.0 6.0 0.00 0.08 0.02 66 1011.4
20260905184621 61 133 1.0 6.0 0.00 0.08 0.02 65 1011.4
20260905184442 60 133 2.0 6.0 0.00 0.08 0.02 66 1011.4
20260905184348 60 133 1.0 6.0 0.00 0.08 0.02 66 1011.4
20260905184245 60 132 1.0 6.0 0.00 0.08 0.02 66 1011.4
20260905184145 60 132 1.0 6.0 0.00 0.08 0.02 67 1011.5
20260905184049 60 132 1.0 6.0 0.00 0.08 0.02 67 1011.6
20260905183954 60 132 0.0 4.0 0.00 0.08 0.02 67 1011.6
20260905183851 60 132 0.0 4.0 0.00 0.08 0.02 67 1011.6
20260905183802 60 132 1.0 4.0 0.00 0.08 0.02 67 1011.6
20260905183700 60 132 2.0 8.0 0.00 0.08 0.02 68 1011.6
20260905183556 60 132 2.0 8.0 0.00 0.08 0.02 68 1011.7
20260905183503 59 132 1.0 8.0 0.00 0.08 0.02 67 1011.7
20260905183358 59 133 2.0 8.0 0.00 0.08 0.02 68 1011.7
20260905183242 59 133 2.0 8.0 0.00 0.08 0.02 69 1011.8
20260905183210 59 133 2.0 8.0 0.00 0.08 0.02 69 1011.8
20260905183050 59 133 2.0 8.0 0.00 0.08 0.02 70 1011.8
20260905182947 59 133 2.0 8.0 0.00 0.08 0.02 69 1011.7
20260905182914 59 133 4.0 8.0 0.00 0.08 0.02 69 1011.8
20260905182751 59 133 3.0 8.0 0.00 0.08 0.02 69 1011.8
20260905182718 59 136 1.0 8.0 0.00 0.08 0.02 68 1011.8
20260905182602 58 136 1.0 8.0 0.00 0.08 0.02 69 1011.8
20260905182500 58 136 1.0 8.0 0.00 0.08 0.02 69 1011.8
20260905182404 58 136 3.0 8.0 0.00 0.08 0.02 69 1011.8
20260905182245 58 136 4.0 8.0 0.00 0.08 0.02 69 1011.8
20260905182144 58 136 4.0 8.0 0.00 0.08 0.02 70 1011.8
20260905182049 58 136 2.0 8.0 0.00 0.08 0.02 71 1011.9
20260905181954 58 135 2.0 6.0 0.00 0.08 0.02 70 1011.9
20260905181852 58 135 2.0 6.0 0.00 0.08 0.02 70 1011.8
20260905181757 58 136 1.0 6.0 0.00 0.08 0.02 70 1011.9
20260905181653 58 136 2.0 7.0 0.00 0.08 0.02 70 1011.9
20260905181553 58 136 3.0 7.0 0.00 0.08 0.02 70 1011.9
20260905181459 58 135 3.0 7.0 0.00 0.08 0.02 70 1012.0
20260905181355 57 136 1.0 7.0 0.00 0.08 0.02 71 1012.0
20260905181302 57 135 1.0 7.0 0.00 0.08 0.02 72 1012.0
20260905181200 57 135 2.0 7.0 0.00 0.08 0.02 71 1012.0
20260905181109 57 135 3.0 7.0 0.00 0.08 0.02 72 1012.0
20260905180948 57 135 3.0 7.0 0.00 0.08 0.02 75 1012.0
20260905180915 57 135 2.0 7.0 0.00 0.08 0.02 75 1011.9
20260905180748 57 139 1.0 7.0 0.00 0.08 0.02 75 1012.0
20260905180648 57 138 2.0 7.0 0.00 0.08 0.02 75 1012.0
20260905180551 56 138 2.0 7.0 0.00 0.08 0.02 75 1012.0
20260905180447 56 137 3.0 7.0 0.00 0.08 0.02 75 1012.0
20260905180343 56 137 3.0 7.0 0.00 0.08 0.02 76 1012.1
20260905180304 56 138 2.0 7.0 0.00 0.08 0.02 77 1012.1
20260905180159 56 138 2.0 8.0 0.00 0.08 0.02 76 1012.0
20260905180054 56 144 2.0 8.0 0.00 0.08 0.02 76 1012.1
20260905175950 56 144 2.0 8.0 0.00 0.08 0.02 78 1012.1
20260905175857 56 144 1.0 8.0 0.00 0.08 0.02 77 1012.1
20260905175753 55 144 1.0 8.0 0.00 0.08 0.02 77 1012.1
20260905175705 55 144 2.0 8.0 0.00 0.08 0.02 76 1012.1
20260905175559 55 144 3.0 8.0 0.00 0.08 0.02 76 1012.2
20260905175444 55 144 3.0 8.0 0.00 0.08 0.02 77 1012.2
20260905175400 55 144 3.0 8.0 0.00 0.08 0.02 77 1012.2
20260905175307 55 154 4.0 8.0 0.00 0.08 0.02 77 1012.2
20260905175142 55 157 4.0 8.0 0.00 0.08 0.02 78 1012.2
20260905175109 55 159 4.0 7.0 0.00 0.08 0.02 79 1012.2
20260905174948 54 175 5.0 7.0 0.00 0.08 0.02 79 1012.3
20260905174845 54 176 4.0 8.0 0.00 0.08 0.02 80 1012.3
20260905174751 54 177 3.0 6.0 0.00 0.08 0.02 80 1012.3
20260905174648 54 178 2.0 6.0 0.00 0.08 0.02 81 1012.3
20260905174612 54 178 2.0 6.0 0.00 0.08 0.02 81 1012.3
20260905174448 54 178 2.0 6.0 0.00 0.08 0.02 81 1012.3
20260905174355 54 178 3.0 6.0 0.00 0.08 0.02 81 1012.3
20260905174256 54 178 4.0 6.0 0.00 0.08 0.02 82 1012.3
20260905174223 53 178 3.0 6.0 0.00 0.08 0.02 83 1012.3
20260905174058 53 183 1.0 4.0 0.00 0.08 0.02 83 1012.3
20260905174004 53 183 1.0 5.0 0.00 0.08 0.02 83 1012.3
20260905173922 53 183 0.0 4.0 0.00 0.08 0.02 84 1012.3
20260905173806 53 183 1.0 4.0 0.00 0.08 0.02 84 1012.3
20260905173645 53 183 2.0 4.0 0.00 0.08 0.02 84 1012.3
20260905173545 52 183 1.0 5.0 0.00 0.08 0.02 84 1012.3
20260905173512 52 187 0.0 4.0 0.00 0.08 0.02 84 1012.3
20260905173356 52 187 1.0 4.0 0.00 0.08 0.02 84 1012.3
20260905173312 52 187 2.0 4.0 0.00 0.08 0.02 84 1012.3
20260905173153 52 187 2.0 4.0 0.00 0.08 0.02 85 1012.3
20260905173048 52 187 1.0 4.0 0.00 0.08 0.02 85 1012.3
20260905172954 52 187 0.0 2.0 0.00 0.08 0.02 85 1012.3
20260905172853 52 187 0.0 2.0 0.00 0.08 0.02 85 1012.3
20260905172750 52 187 0.0 4.0 0.00 0.08 0.02 84 1012.3
20260905172718 52 187 0.0 4.0 0.00 0.08 0.02 84 1012.3
20260905172602 52 187 0.0 4.0 0.00 0.08 0.02 84 1012.3
20260905172459 52 187 1.0 4.0 0.00 0.08 0.02 84 1012.3
20260905172405 52 187 1.0 4.0 0.00 0.08 0.02 84 1012.3
20260905172258 52 187 1.0 4.0 0.00 0.08 0.02 84 1012.3
20260905172206 51 187 2.0 4.0 0.00 0.08 0.02 84 1012.3
20260905172044 51 187 2.0 4.0 0.00 0.08 0.02 84 1012.3
20260905172010 51 187 2.0 4.0 0.00 0.08 0.02 85 1012.3
20260905171848 51 187 2.0 4.0 0.00 0.08 0.02 85 1012.3
20260905171744 51 187 2.0 4.0 0.00 0.08 0.02 86 1012.3
20260905171712 51 187 2.0 4.0 0.00 0.08 0.02 86 1012.3
20260905171548 51 187 2.0 4.0 0.00 0.08 0.02 86 1012.3
20260905171518 51 187 2.0 4.0 0.00 0.08 0.02 86 1012.3
20260905171353 51 187 2.0 4.0 0.00 0.08 0.02 87 1012.3
20260905171300 51 187 2.0 4.0 0.00 0.08 0.02 87 1012.3
20260905171219 51 187 3.0 4.0 0.00 0.08 0.02 87 1012.3
20260905171100 51 187 3.0 5.0 0.00 0.08 0.02 87 1012.3
20260905171026 51 187 2.0 5.0 0.00 0.08 0.02 86 1012.3
20260905170901 51 186 1.0 5.0 0.00 0.08 0.02 87 1012.3
20260905170807 51 186 1.0 5.0 0.00 0.08 0.02 86 1012.3
20260905170650 51 186 1.0 5.0 0.00 0.08 0.02 87 1012.3
20260905170614 51 186 1.0 5.0 0.00 0.08 0.02 87 1012.3
20260905170520 51 186 1.0 5.0 0.00 0.08 0.02 87 1012.2
20260905170353 51 186 3.0 5.0 0.00 0.08 0.02 88 1012.2
20260905170309 51 186 3.0 5.0 0.00 0.08 0.02 88 1012.2
20260905170155 51 186 3.0 5.0 0.00 0.08 0.02 89 1012.2
20260905170101 51 186 3.0 5.0 0.00 0.08 0.02 90 1012.2
20260905165957 51 186 3.0 5.0 0.00 0.08 0.02 90 1012.2
20260905165908 51 186 3.0 4.0 0.00 0.08 0.02 90 1012.2
20260905165744 51 186 3.0 4.0 0.00 0.08 0.02 90 1012.2
20260905165710 50 186 3.0 4.0 0.00 0.08 0.02 91 1012.2
20260905165629 50 186 3.0 4.0 0.00 0.08 0.02 91 1012.2
20260905165351 50 186 3.0 4.0 0.00 0.08 0.02 91 1012.3
20260905165314 50 186 3.0 4.0 0.00 0.08 0.02 91 1012.3
20260905165157 50 186 3.0 4.0 0.00 0.08 0.02 91 1012.3
20260905165059 50 186 2.0 4.0 0.00 0.08 0.02 91 1012.3
20260905164956 49 186 1.0 4.0 0.00 0.08 0.02 91 1012.3
20260905164903 49 186 2.0 4.0 0.00 0.08 0.02 91 1012.3
20260905164758 49 186 1.0 4.0 0.00 0.08 0.02 92 1012.3
20260905164645 49 186 1.0 4.0 0.00 0.08 0.02 92 1012.3
20260905164600 49 186 1.0 4.0 0.00 0.08 0.02 92 1012.3
20260905164449 49 186 2.0 4.0 0.00 0.08 0.02 92 1012.3
20260905164345 49 186 2.0 4.0 0.00 0.08 0.02 92 1012.3
20260905164312 49 186 1.0 4.0 0.00 0.08 0.02 92 1012.3
20260905164150 49 186 1.0 4.0 0.00 0.08 0.02 92 1012.3
20260905164054 49 186 2.0 4.0 0.00 0.08 0.02 92 1012.3
20260905163952 49 186 2.0 4.0 0.00 0.08 0.02 92 1012.3
20260905163858 49 186 2.0 4.0 0.00 0.08 0.02 92 1012.3
20260905163800 49 185 2.0 3.0 0.00 0.08 0.02 93 1012.2
20260905163657 49 186 1.0 3.0 0.00 0.08 0.02 93 1012.2
20260905163601 49 185 0.0 3.0 0.00 0.08 0.02 93 1012.3
20260905163528 49 185 1.0 3.0 0.00 0.08 0.02 93 1012.3
20260905163341 48 185 1.0 3.0 0.00 0.08 0.02 93 1012.2
20260905163258 48 185 1.0 3.0 0.00 0.08 0.02 93 1012.3
20260905163206 48 185 0.0 5.0 0.00 0.08 0.02 93 1012.3
20260905163046 48 185 0.0 5.0 0.00 0.08 0.02 93 1012.2
20260905162951 48 185 1.0 5.0 0.00 0.08 0.02 93 1012.3
20260905162847 48 185 1.0 5.0 0.00 0.08 0.02 94 1012.3
20260905162813 48 185 1.0 5.0 0.00 0.08 0.02 94 1012.2
20260905162652 48 185 2.0 5.0 0.00 0.08 0.02 94 1012.3
20260905162555 48 185 2.0 5.0 0.00 0.08 0.02 94 1012.3
20260905162453 48 186 2.0 5.0 0.00 0.08 0.02 94 1012.3
20260905162404 48 186 2.0 5.0 0.00 0.08 0.02 94 1012.3
20260905162305 48 185 2.0 5.0 0.00 0.08 0.02 94 1012.3
20260905162200 47 185 2.0 5.0 0.00 0.08 0.02 94 1012.3
20260905162125 47 185 3.0 5.0 0.00 0.08 0.02 94 1012.3
20260905162029 47 185 4.0 5.0 0.00 0.08 0.02 95 1012.3
20260905161905 47 185 2.0 6.0 0.00 0.08 0.02 95 1012.4
20260905161750 47 185 2.0 5.0 0.00 0.08 0.02 95 1012.4
20260905161653 47 185 2.0 5.0 0.00 0.08 0.02 95 1012.4
20260905161618 47 185 1.0 5.0 0.00 0.08 0.02 95 1012.4
20260905161453 47 185 1.0 5.0 0.00 0.08 0.02 95 1012.4
20260905161359 47 185 2.0 5.0 0.00 0.08 0.02 95 1012.4
20260905161303 47 185 3.0 5.0 0.00 0.08 0.02 95 1012.4
20260905161159 47 185 3.0 5.0 0.00 0.08 0.02 95 1012.4
20260905161106 47 185 3.0 5.0 0.00 0.08 0.02 95 1012.4
20260905161002 47 185 2.0 5.0 0.00 0.08 0.02 95 1012.4
20260905160842 46 185 2.0 5.0 0.00 0.08 0.02 95 1012.4
20260905160748 46 185 1.0 5.0 0.00 0.08 0.02 95 1012.4
20260905160648 46 185 2.0 5.0 0.00 0.08 0.02 95 1012.4
20260905160611 46 185 3.0 5.0 0.00 0.08 0.02 95 1012.4
20260905160516 46 185 3.0 5.0 0.00 0.08 0.02 95 1012.4
20260905160348 46 185 3.0 5.0 0.00 0.08 0.02 95 1012.4
20260905160324 46 185 3.0 5.0 0.00 0.08 0.02 95 1012.4
20260905160218 46 185 3.0 4.0 0.00 0.08 0.02 95 1012.4
20260905160120 46 185 3.0 4.0 0.00 0.08 0.02 95 1012.4
20260905160001 46 185 2.0 4.0 0.00 0.08 0.02 95 1012.4
20260905155845 46 185 2.0 4.0 0.00 0.08 0.02 95 1012.4
20260905155800 46 185 2.0 4.0 0.00 0.08 0.02 95 1012.4
20260905155708 45 185 2.0 4.0 0.00 0.08 0.02 95 1012.4
20260905155544 45 185 3.0 4.0 0.00 0.08 0.02 95 1012.4
20260905155509 45 185 3.0 4.0 0.00 0.08 0.02 95 1012.4
20260905155345 45 185 3.0 4.0 0.00 0.08 0.02 95 1012.5
20260905155247 45 185 3.0 4.0 0.00 0.08 0.02 95 1012.4
20260905155155 45 185 3.0 4.0 0.00 0.08 0.02 95 1012.4
20260905155050 45 185 2.0 4.0 0.00 0.08 0.02 95 1012.5
20260905154957 45 185 3.0 4.0 0.00 0.08 0.02 95 1012.5
20260905154854 45 185 3.0 4.0 0.00 0.08 0.02 95 1012.5
20260905154801 45 185 2.0 4.0 0.00 0.08 0.02 95 1012.4
20260905154701 45 185 2.0 4.0 0.00 0.08 0.02 95 1012.5
20260905154557 45 185 2.0 4.0 0.00 0.08 0.02 95 1012.4
20260905154504 45 185 2.0 4.0 0.00 0.08 0.02 95 1012.4
20260905154409 45 185 2.0 4.0 0.00 0.08 0.02 95 1012.4
20260905154303 45 185 2.0 4.0 0.00 0.08 0.02 95 1012.4
20260905154151 45 185 2.0 4.0 0.00 0.08 0.02 95 1012.4
20260905154046 45 185 2.0 4.0 0.00 0.08 0.02 95 1012.4
20260905154013 45 185 2.0 4.0 0.00 0.08 0.02 95 1012.4
20260905153922 45 185 2.0 4.0 0.00 0.08 0.02 95 1012.4
20260905153757 45 185 2.0 4.0 0.00 0.08 0.02 95 1012.4
20260905153656 45 185 2.0 5.0 0.00 0.08 0.02 95 1012.4
20260905153600 45 185 1.0 5.0 0.00 0.08 0.02 95 1012.4
20260905153456 45 185 1.0 5.0 0.00 0.08 0.02 95 1012.4
20260905153422 45 185 1.0 5.0 0.00 0.08 0.02 95 1012.4
20260905153258 45 185 2.0 5.0 0.00 0.08 0.02 95 1012.4
20260905153150 45 185 2.0 5.0 0.00 0.08 0.02 95 1012.4
20260905153046 45 185 2.0 5.0 0.00 0.08 0.02 95 1012.4
20260905153012 45 185 2.0 5.0 0.00 0.08 0.02 95 1012.5
20260905152918 45 185 3.0 5.0 0.00 0.08 0.02 95 1012.5
20260905152753 45 185 3.0 5.0 0.00 0.08 0.02 95 1012.5
20260905152720 45 185 3.0 6.0 0.00 0.08 0.02 95 1012.5
20260905152554 45 185 3.0 6.0 0.00 0.08 0.02 95 1012.5
20260905152500 45 184 3.0 5.0 0.00 0.08 0.02 95 1012.5
20260905152400 44 184 3.0 5.0 0.00 0.08 0.02 95 1012.5
20260905152307 44 184 3.0 5.0 0.00 0.08 0.02 95 1012.5
20260905152145 44 184 3.0 6.0 0.00 0.08 0.02 95 1012.5
20260905152100 44 184 3.0 6.0 0.00 0.08 0.02 95 1012.5
20260905152007 44 184 2.0 6.0 0.00 0.08 0.02 95 1012.5
20260905151845 44 184 2.0 7.0 0.00 0.08 0.02 95 1012.4
20260905151747 44 184 2.0 7.0 0.00 0.08 0.02 95 1012.5
20260905151714 44 184 2.0 7.0 0.00 0.08 0.02 95 1012.5
20260905151617 44 184 2.0 7.0 0.00 0.08 0.02 95 1012.5
20260905151522 44 184 4.0 7.0 0.00 0.08 0.02 95 1012.5
20260905151358 44 184 5.0 7.0 0.00 0.08 0.02 95 1012.5
20260905151305 44 184 3.0 7.0 0.00 0.08 0.02 95 1012.5
20260905151143 44 183 3.0 7.0 0.00 0.08 0.02 95 1012.4
20260905151043 44 183 4.0 7.0 0.00 0.08 0.02 95 1012.4
20260905151008 44 184 4.0 7.0 0.00 0.08 0.02 95 1012.4
20260905150844 44 183 4.0 7.0 0.00 0.08 0.02 95 1012.4
20260905150751 44 183 4.0 8.0 0.00 0.08 0.02 95 1012.4
20260905150650 44 183 2.0 6.0 0.00 0.08 0.02 95 1012.4
20260905150555 44 183 3.0 6.0 0.00 0.08 0.02 95 1012.4
20260905150512 44 183 4.0 6.0 0.00 0.08 0.02 95 1012.4
20260905150356 44 183 3.0 6.0 0.00 0.08 0.02 95 1012.5
20260905150256 44 181 3.0 5.0 0.00 0.08 0.02 95 1012.4
20260905150201 44 181 3.0 5.0 0.00 0.08 0.02 95 1012.4
20260905150045 44 182 3.0 6.0 0.00 0.08 0.02 95 1012.4
20260905145942 44 182 3.0 7.0 0.00 0.08 0.02 95 1012.4
20260905145848 43 181 3.0 7.0 0.00 0.08 0.02 95 1012.4
20260905145745 43 181 3.0 7.0 0.00 0.08 0.02 95 1012.4
20260905145654 43 181 4.0 7.0 0.00 0.08 0.02 95 1012.4
20260905145552 43 181 3.0 7.0 0.00 0.08 0.02 95 1012.3
20260905145449 43 181 3.0 7.0 0.00 0.08 0.02 95 1012.3
20260905145357 43 180 3.0 7.0 0.00 0.08 0.02 95 1012.3
20260905145254 43 180 4.0 7.0 0.00 0.08 0.02 95 1012.3
20260905145202 43 180 4.0 7.0 0.00 0.08 0.02 95 1012.3
20260905145058 43 175 3.0 7.0 0.00 0.08 0.02 95 1012.3
20260905145005 43 163 2.0 5.0 0.00 0.08 0.02 95 1012.3
20260905144845 43 162 2.0 5.0 0.00 0.08 0.02 95 1012.3
20260905144742 43 162 2.0 5.0 0.00 0.08 0.02 95 1012.3
20260905144651 43 162 2.0 5.0 0.00 0.08 0.02 95 1012.3
20260905144546 43 162 1.0 5.0 0.00 0.08 0.02 95 1012.3
20260905144442 43 162 1.0 5.0 0.00 0.08 0.02 95 1012.3
20260905144348 43 162 2.0 5.0 0.00 0.08 0.02 95 1012.3
20260905144248 43 162 2.0 5.0 0.00 0.08 0.02 95 1012.4
20260905144156 43 162 2.0 5.0 0.00 0.08 0.02 95 1012.3
20260905144052 43 162 1.0 5.0 0.00 0.08 0.02 95 1012.3
20260905143958 43 162 1.0 5.0 0.00 0.08 0.02 95 1012.3
20260905143854 43 161 1.0 3.0 0.00 0.08 0.02 95 1012.3
20260905143800 43 161 1.0 3.0 0.00 0.08 0.02 95 1012.3
20260905143705 43 161 1.0 3.0 0.00 0.08 0.02 95 1012.3
20260905143607 43 161 1.0 3.0 0.00 0.08 0.02 95 1012.3
20260905143509 43 161 1.0 3.0 0.00 0.08 0.02 95 1012.3
20260905143345 43 161 1.0 3.0 0.00 0.08 0.02 95 1012.2
20260905143241 43 161 1.0 3.0 0.00 0.08 0.02 95 1012.2
20260905143150 43 161 1.0 3.0 0.00 0.08 0.02 95 1012.2
20260905143046 42 161 1.0 3.0 0.00 0.08 0.02 95 1012.2
20260905142943 42 161 1.0 3.0 0.00 0.08 0.02 95 1012.2
20260905142854 42 161 1.0 3.0 0.00 0.08 0.02 95 1012.2
20260905142752 42 161 2.0 3.0 0.00 0.08 0.02 95 1012.2
20260905142659 42 161 2.0 3.0 0.00 0.08 0.02 95 1012.1
20260905142555 42 161 1.0 3.0 0.00 0.08 0.02 95 1012.1
20260905142502 42 161 1.0 2.0 0.00 0.08 0.02 95 1012.0
20260905142359 42 161 0.0 2.0 0.00 0.08 0.02 95 1012.0
20260905142309 42 161 0.0 0.0 0.00 0.08 0.02 95 1012.0
20260905142147 42 161 0.0 0.0 0.00 0.08 0.02 95 1012.0
20260905142043 42 161 0.0 0.0 0.00 0.08 0.02 94 1012.1
20260905141950 42 161 0.0 2.0 0.00 0.08 0.02 94 1012.1
20260905141847 42 161 0.0 2.0 0.00 0.08 0.02 94 1012.1
20260905141753 42 161 0.0 2.0 0.00 0.08 0.02 94 1012.0
20260905141652 42 161 0.0 3.0 0.00 0.08 0.02 95 1012.1
20260905141600 42 161 0.0 3.0 0.00 0.08 0.02 95 1012.1
20260905141457 42 161 0.0 3.0 0.00 0.08 0.02 94 1012.0
20260905141422 42 161 0.0 3.0 0.00 0.08 0.02 94 1012.0
20260905141307 42 161 1.0 3.0 0.00 0.08 0.02 95 1012.0
20260905141144 42 161 1.0 3.0 0.00 0.08 0.02 95 1011.9
20260905141049 42 161 1.0 3.0 0.00 0.08 0.02 95 1011.9
20260905140945 42 161 1.0 3.0 0.00 0.08 0.02 95 1011.9
20260905140847 42 161 1.0 3.0 0.00 0.08 0.02 95 1011.9
20260905140753 42 161 0.0 2.0 0.00 0.08 0.02 95 1011.9
20260905140652 42 161 0.0 1.0 0.00 0.08 0.02 95 1011.9
20260905140557 42 161 0.0 1.0 0.00 0.08 0.02 94 1011.9
20260905140451 42 161 0.0 2.0 0.00 0.08 0.02 94 1011.9
20260905140348 42 161 0.0 2.0 0.00 0.08 0.02 94 1011.9
20260905140304 42 161 0.0 2.0 0.00 0.08 0.02 94 1011.9
20260905140203 42 161 0.0 2.0 0.00 0.08 0.02 94 1011.9
20260905140059 42 161 0.0 3.0 0.00 0.08 0.02 94 1011.9
20260905140002 42 161 0.0 3.0 0.00 0.08 0.02 94 1011.9
20260905135859 42 161 1.0 3.0 0.00 0.08 0.02 94 1011.9
20260905135806 42 161 1.0 3.0 0.00 0.08 0.02 94 1011.9
20260905135645 42 161 1.0 3.0 0.00 0.08 0.02 94 1011.9
20260905135545 42 161 1.0 3.0 0.01 0.08 0.02 94 1011.9
20260905135510 42 161 1.0 3.0 0.01 0.08 0.02 94 1011.8
20260905135346 42 161 1.0 3.0 0.01 0.08 0.02 94 1011.8
20260905135252 42 161 2.0 3.0 0.01 0.08 0.02 95 1011.8
20260905135151 42 161 1.0 3.0 0.01 0.08 0.02 95 1011.8
20260905135056 42 161 1.0 5.0 0.01 0.08 0.02 95 1011.8
20260905135013 42 161 2.0 5.0 0.01 0.08 0.02 95 1011.8
20260905134842 42 161 2.0 5.0 0.01 0.08 0.02 94 1011.7
20260905134800 42 161 2.0 5.0 0.01 0.08 0.02 94 1011.8
20260905134709 42 161 1.0 5.0 0.01 0.08 0.02 95 1011.8
20260905134612 42 161 1.0 5.0 0.01 0.08 0.02 94 1011.7
20260905134508 42 161 1.0 5.0 0.01 0.08 0.02 95 1011.8
20260905134354 42 161 1.0 5.0 0.01 0.08 0.02 94 1011.8
20260905134319 42 161 2.0 5.0 0.01 0.08 0.02 95 1011.8
20260905134157 42 161 2.0 5.0 0.01 0.08 0.02 94 1011.7
20260905134052 42 161 2.0 5.0 0.01 0.08 0.02 94 1011.7
20260905134002 42 161 2.0 5.0 0.01 0.08 0.02 94 1011.7
20260905133857 42 161 2.0 5.0 0.01 0.08 0.02 94 1011.8
20260905133753 42 161 2.0 5.0 0.01 0.08 0.02 94 1011.8
20260905133659 42 161 2.0 5.0 0.01 0.08 0.02 94 1011.8
20260905133554 42 161 1.0 5.0 0.01 0.08 0.02 94 1011.8
20260905133451 42 161 2.0 5.0 0.01 0.08 0.02 94 1011.7
20260905133417 42 161 2.0 4.0 0.01 0.08 0.02 94 1011.8
20260905133306 42 161 2.0 3.0 0.01 0.08 0.02 94 1011.8
20260905133145 42 160 2.0 3.0 0.01 0.08 0.02 94 1011.8
20260905133101 42 160 2.0 2.0 0.01 0.08 0.02 94 1011.8
20260905133006 42 160 1.0 2.0 0.01 0.08 0.02 94 1011.8
20260905132843 42 160 1.0 3.0 0.01 0.08 0.02 94 1011.8
20260905132810 42 160 1.0 5.0 0.01 0.08 0.02 94 1011.8
20260905132652 42 160 1.0 5.0 0.01 0.08 0.02 94 1011.8
20260905132549 42 160 1.0 5.0 0.01 0.08 0.02 94 1011.8
20260905132455 42 160 1.0 5.0 0.01 0.08 0.02 94 1011.8
20260905132352 42 160 1.0 5.0 0.01 0.08 0.02 94 1011.8
20260905132247 42 160 1.0 6.0 0.01 0.08 0.02 94 1011.8
20260905132155 42 160 1.0 8.0 0.01 0.08 0.02 94 1011.8
20260905132052 42 160 2.0 8.0 0.01 0.08 0.02 94 1011.8
20260905132001 42 160 2.0 8.0 0.01 0.08 0.02 94 1011.8
20260905131907 42 160 1.0 8.0 0.01 0.08 0.02 94 1011.7
20260905131743 42 160 1.0 8.0 0.01 0.08 0.02 94 1011.7
20260905131710 42 160 2.0 8.0 0.01 0.08 0.02 94 1011.7
20260905131545 42 160 3.0 8.0 0.01 0.08 0.02 94 1011.7
20260905131442 42 160 4.0 8.0 0.01 0.08 0.02 94 1011.7
20260905131408 42 160 5.0 8.0 0.01 0.08 0.02 94 1011.7
20260905131258 42 161 5.0 8.0 0.01 0.08 0.02 94 1011.6
20260905131156 42 163 6.0 8.0 0.01 0.08 0.02 94 1011.7
20260905131100 42 167 5.0 8.0 0.01 0.08 0.02 94 1011.7
20260905130957 42 171 4.0 6.0 0.01 0.08 0.02 94 1011.7
20260905130904 42 171 3.0 6.0 0.01 0.08 0.02 94 1011.7
20260905130742 42 173 2.0 6.0 0.01 0.08 0.02 94 1011.7
20260905130711 42 173 3.0 6.0 0.01 0.08 0.02 94 1011.7
20260905130549 42 173 3.0 6.0 0.01 0.08 0.02 94 1011.7
20260905130506 42 173 3.0 6.0 0.01 0.08 0.02 94 1011.7
20260905130348 42 173 3.0 6.0 0.01 0.08 0.02 94 1011.7
20260905130325 42 173 3.0 7.0 0.01 0.08 0.02 94 1011.7
20260905130150 42 172 3.0 7.0 0.01 0.08 0.02 94 1011.6
20260905130054 42 172 3.0 7.0 0.01 0.08 0.02 94 1011.6
20260905125952 42 171 2.0 7.0 0.01 0.08 0.02 94 1011.6
20260905125857 42 171 3.0 7.0 0.01 0.08 0.02 94 1011.5
20260905125807 42 171 4.0 7.0 0.01 0.08 0.02 94 1011.5
20260905125705 42 171 3.0 7.0 0.01 0.08 0.02 94 1011.5
20260905125548 42 171 4.0 7.0 0.00 0.07 0.01 94 1011.5
20260905125445 42 171 3.0 7.0 0.00 0.07 0.01 94 1011.5
20260905125351 42 169 3.0 6.0 0.00 0.07 0.01 94 1011.5
20260905125249 42 168 3.0 6.0 0.00 0.07 0.01 94 1011.5
20260905125158 42 167 3.0 6.0 0.00 0.07 0.01 94 1011.5
20260905125053 42 167 2.0 6.0 0.00 0.07 0.01 94 1011.5
20260905124951 42 167 3.0 6.0 0.00 0.07 0.01 94 1011.5
20260905124856 42 167 3.0 6.0 0.00 0.07 0.01 94 1011.5
20260905124753 42 166 2.0 6.0 0.00 0.07 0.01 94 1011.6
20260905124701 42 165 2.0 6.0 0.00 0.07 0.01 94 1011.6
20260905124557 42 165 2.0 6.0 0.00 0.07 0.01 94 1011.6
20260905124524 42 165 2.0 6.0 0.00 0.07 0.01 94 1011.6
20260905124345 42 165 3.0 6.0 0.00 0.07 0.01 94 1011.6
20260905124242 42 165 3.0 6.0 0.00 0.07 0.01 94 1011.6
20260905124209 42 165 2.0 6.0 0.00 0.07 0.01 94 1011.6
20260905124052 42 163 1.0 6.0 0.00 0.07 0.01 94 1011.6
20260905123950 42 163 3.0 6.0 0.00 0.07 0.01 94 1011.6
20260905123857 42 163 3.0 5.0 0.00 0.07 0.01 94 1011.7
20260905123755 42 163 3.0 5.0 0.00 0.07 0.01 94 1011.7
20260905123725 42 163 2.0 5.0 0.00 0.07 0.01 94 1011.7
20260905123559 42 163 2.0 5.0 0.00 0.07 0.01 94 1011.6
20260905123506 42 163 2.0 5.0 0.00 0.07 0.01 94 1011.6
20260905123402 42 163 2.0 5.0 0.00 0.07 0.01 94 1011.7
20260905123308 42 163 2.0 5.0 0.00 0.07 0.01 94 1011.7
20260905123146 42 163 1.0 5.0 0.00 0.07 0.01 94 1011.6
20260905123042 42 163 2.0 5.0 0.00 0.07 0.01 94 1011.6
20260905122953 42 163 2.0 5.0 0.00 0.07 0.01 94 1011.7
20260905122851 42 162 3.0 5.0 0.00 0.07 0.01 94 1011.7
20260905122818 42 162 3.0 5.0 0.00 0.07 0.01 94 1011.7
20260905122656 42 161 2.0 5.0 0.00 0.07 0.01 94 1011.7
20260905122559 42 160 2.0 5.0 0.00 0.07 0.01 94 1011.7
20260905122456 42 160 2.0 5.0 0.00 0.07 0.01 94 1011.7
20260905122421 42 160 2.0 5.0 0.00 0.07 0.01 94 1011.6
20260905122326 42 159 2.0 5.0 0.00 0.07 0.01 94 1011.7
20260905122144 42 158 2.0 3.0 0.00 0.07 0.01 94 1011.7
20260905122109 42 157 1.0 3.0 0.00 0.07 0.01 94 1011.6
20260905121946 42 156 1.0 3.0 0.00 0.07 0.01 94 1011.6
20260905121853 42 156 0.0 3.0 0.00 0.07 0.01 94 1011.6
20260905121748 42 156 1.0 3.0 0.00 0.07 0.01 94 1011.7
20260905121646 42 156 2.0 3.0 0.00 0.07 0.01 94 1011.7
20260905121555 42 156 1.0 3.0 0.00 0.07 0.01 94 1011.7
20260905121452 42 156 1.0 3.0 0.00 0.07 0.01 94 1011.7
20260905121358 42 156 1.0 3.0 0.00 0.07 0.01 94 1011.7
20260905121256 42 156 0.0 3.0 0.00 0.07 0.01 94 1011.7
20260905121200 42 156 1.0 3.0 0.00 0.07 0.01 94 1011.6
20260905121055 42 156 1.0 3.0 0.00 0.07 0.01 94 1011.7
20260905121001 42 156 1.0 3.0 0.00 0.07 0.01 94 1011.7
20260905120842 42 156 2.0 3.0 0.00 0.07 0.01 94 1011.6
20260905120808 42 156 2.0 3.0 0.00 0.07 0.01 94 1011.6
20260905120647 42 156 1.0 3.0 0.00 0.07 0.01 94 1011.6
20260905120603 42 156 1.0 3.0 0.00 0.07 0.01 94 1011.5
20260905120448 42 156 1.0 3.0 0.00 0.07 0.01 94 1011.5
20260905120345 42 156 0.0 2.0 0.00 0.07 0.01 94 1011.5
20260905120302 42 156 0.0 2.0 0.00 0.07 0.01 94 1011.5
20260905120151 42 156 1.0 2.0 0.00 0.07 0.01 94 1011.5
20260905120055 42 156 1.0 2.0 0.00 0.07 0.01 94 1011.4
20260905115952 42 156 0.0 2.0 0.00 0.07 0.01 94 1011.5
20260905115855 42 156 0.0 1.0 0.00 0.07 0.01 94 1011.5
20260905115802 42 156 0.0 1.0 0.00 0.07 0.01 94 1011.4
20260905115659 42 156 0.0 1.0 0.00 0.07 0.01 94 1011.5
20260905115622 42 156 0.0 1.0 0.00 0.07 0.01 94 1011.5
20260905115528 42 156 0.0 1.0 0.00 0.07 0.01 94 1011.5
20260905115347 42 156 0.0 2.0 0.00 0.07 0.01 94 1011.5
20260905115314 42 156 0.0 2.0 0.00 0.07 0.01 94 1011.5
20260905115152 42 156 0.0 3.0 0.00 0.07 0.01 94 1011.5
20260905115117 43 156 0.0 3.0 0.00 0.07 0.01 94 1011.4
20260905114954 42 156 0.0 3.0 0.00 0.07 0.01 94 1011.5
20260905114901 43 156 0.0 4.0 0.00 0.07 0.01 94 1011.4
20260905114758 43 156 0.0 4.0 0.00 0.07 0.01 94 1011.5
20260905114709 43 156 0.0 4.0 0.00 0.07 0.01 94 1011.5
20260905114546 42 156 0.0 4.0 0.00 0.07 0.01 94 1011.5
20260905114443 42 156 1.0 4.0 0.00 0.07 0.01 94 1011.6
20260905114350 42 156 1.0 4.0 0.00 0.07 0.01 94 1011.6
20260905114305 42 156 1.0 4.0 0.00 0.07 0.01 94 1011.6
20260905114152 42 156 1.0 4.0 0.00 0.07 0.01 94 1011.7
20260905114108 42 156 1.0 4.0 0.00 0.07 0.01 94 1011.7
20260905113952 42 156 1.0 4.0 0.00 0.07 0.01 94 1011.6
20260905113902 42 156 0.0 4.0 0.00 0.07 0.01 94 1011.6
20260905113758 42 156 0.0 4.0 0.00 0.07 0.01 94 1011.6
20260905113707 42 156 1.0 4.0 0.00 0.07 0.01 94 1011.6
20260905113542 42 156 1.0 3.0 0.00 0.07 0.01 94 1011.6
20260905113500 42 156 1.0 3.0 0.00 0.07 0.01 94 1011.6
20260905113407 42 156 1.0 3.0 0.00 0.07 0.01 94 1011.6
20260905113247 42 156 0.0 1.0 0.00 0.07 0.01 94 1011.7
20260905113147 42 156 0.0 1.0 0.00 0.07 0.01 94 1011.7
20260905113052 42 156 0.0 1.0 0.00 0.07 0.01 94 1011.7
20260905112949 42 156 0.0 1.0 0.00 0.07 0.01 94 1011.7
20260905112856 43 156 0.0 1.0 0.00 0.07 0.01 94 1011.7
20260905112814 42 156 0.0 1.0 0.00 0.07 0.01 94 1011.7
20260905112659 43 156 0.0 2.0 0.00 0.07 0.01 94 1011.7
20260905112600 43 156 0.0 2.0 0.00 0.07 0.01 94 1011.7
20260905112506 43 156 0.0 3.0 0.00 0.07 0.01 94 1011.7
20260905112343 43 156 0.0 3.0 0.00 0.07 0.01 94 1011.7
20260905112308 43 156 0.0 3.0 0.00 0.07 0.01 94 1011.7
20260905112205 43 156 0.0 3.0 0.00 0.07 0.01 94 1011.7
20260905112133 43 156 0.0 3.0 0.00 0.07 0.01 94 1011.7
20260905111952 43 156 0.0 3.0 0.00 0.07 0.01 94 1011.7
20260905111849 43 156 1.0 3.0 0.00 0.07 0.01 94 1011.7
20260905111756 43 156 1.0 3.0 0.00 0.07 0.01 94 1011.7
20260905111655 43 156 1.0 5.0 0.00 0.07 0.01 94 1011.7
20260905111557 43 156 1.0 5.0 0.00 0.07 0.01 94 1011.7
20260905111455 43 156 1.0 5.0 0.00 0.07 0.01 93 1011.7
20260905111402 43 156 0.0 5.0 0.00 0.07 0.01 93 1011.7
20260905111243 43 156 0.0 5.0 0.00 0.07 0.01 93 1011.7
20260905111210 43 156 0.0 5.0 0.00 0.07 0.01 93 1011.7
20260905111106 43 156 1.0 5.0 0.00 0.07 0.01 93 1011.7
20260905110952 43 156 2.0 5.0 0.00 0.07 0.01 93 1011.7
20260905110849 43 156 2.0 5.0 0.00 0.07 0.01 93 1011.7
20260905110746 42 156 2.0 5.0 0.00 0.07 0.01 93 1011.7
20260905110654 43 157 2.0 4.0 0.00 0.07 0.01 93 1011.7
20260905110553 43 157 2.0 3.0 0.00 0.07 0.01 93 1011.7
20260905110459 42 157 2.0 3.0 0.00 0.07 0.01 93 1011.7
20260905110355 42 157 1.0 3.0 0.00 0.07 0.01 93 1011.7
20260905110313 43 157 0.0 3.0 0.00 0.07 0.01 93 1011.7
20260905110158 43 157 1.0 3.0 0.00 0.07 0.01 93 1011.7
20260905105943 43 157 1.0 3.0 0.00 0.07 0.01 93 1011.7
20260905105911 43 157 1.0 3.0 0.00 0.07 0.01 93 1011.7
20260905105748 43 158 1.0 3.0 0.00 0.07 0.01 93 1011.8
20260905105706 43 158 1.0 3.0 0.00 0.07 0.01 93 1011.8
20260905105549 43 158 1.0 3.0 0.00 0.07 0.01 93 1011.7
20260905105447 42 158 0.0 1.0 0.00 0.07 0.01 93 1011.7
20260905105413 43 158 0.0 1.0 0.00 0.07 0.01 93 1011.7
20260905105319 43 158 0.0 0.0 0.00 0.07 0.01 93 1011.7
20260905105159 43 158 0.0 0.0 0.00 0.07 0.01 93 1011.7
20260905105107 43 158 0.0 0.0 0.00 0.07 0.01 93 1011.7
20260905105001 43 158 0.0 0.0 0.00 0.07 0.01 93 1011.8
20260905104928 43 158 0.0 0.0 0.00 0.07 0.01 93 1011.8
20260905104745 43 158 0.0 0.0 0.00 0.07 0.01 93 1011.8
20260905104644 43 158 0.0 0.0 0.00 0.07 0.01 93 1011.8
20260905104553 43 158 0.0 0.0 0.00 0.07 0.01 93 1011.9
20260905104511 43 158 0.0 1.0 0.00 0.07 0.01 93 1011.9
20260905104357 43 158 0.0 1.0 0.00 0.07 0.01 93 1011.9
20260905104253 43 158 0.0 1.0 0.00 0.07 0.01 93 1011.9
20260905104221 43 158 0.0 1.0 0.00 0.07 0.01 93 1011.8
20260905104044 43 158 0.0 2.0 0.00 0.07 0.01 93 1011.9
20260905104000 43 158 0.0 2.0 0.00 0.07 0.01 93 1011.9
20260905103842 43 158 0.0 2.0 0.00 0.07 0.01 93 1011.8
20260905103744 43 158 0.0 2.0 0.00 0.07 0.01 93 1011.8
20260905103652 43 158 0.0 2.0 0.00 0.07 0.01 93 1011.8
20260905103547 43 158 0.0 2.0 0.00 0.07 0.01 93 1011.8
20260905103444 43 158 0.0 2.0 0.00 0.07 0.01 93 1011.8
20260905103351 43 158 1.0 2.0 0.00 0.07 0.01 93 1011.8
20260905103257 43 158 1.0 2.0 0.00 0.07 0.01 93 1011.7
20260905103154 43 158 1.0 2.0 0.00 0.07 0.01 93 1011.8
20260905103053 43 158 1.0 2.0 0.00 0.07 0.01 93 1011.7
20260905103000 43 158 0.0 2.0 0.00 0.07 0.01 93 1011.8
20260905102906 43 158 0.0 2.0 0.00 0.07 0.01 93 1011.8
20260905102803 43 158 0.0 3.0 0.00 0.07 0.01 93 1011.7
20260905102711 43 158 0.0 3.0 0.00 0.07 0.01 93 1011.7
20260905102615 43 158 0.0 3.0 0.00 0.07 0.01 93 1011.7
20260905102452 43 158 0.0 3.0 0.00 0.07 0.01 93 1011.8
20260905102358 43 158 0.0 3.0 0.00 0.07 0.01 93 1011.7
20260905102258 44 158 1.0 3.0 0.00 0.07 0.01 93 1011.7
20260905102156 44 158 1.0 3.0 0.00 0.07 0.01 93 1011.7
20260905102100 44 158 1.0 3.0 0.00 0.07 0.01 93 1011.7
20260905101957 44 158 1.0 3.0 0.00 0.07 0.01 93 1011.7
20260905101924 44 158 1.0 3.0 0.00 0.07 0.01 93 1011.7
20260905101830 44 158 0.0 3.0 0.00 0.07 0.01 93 1011.7
20260905101646 44 158 1.0 3.0 0.00 0.07 0.01 93 1011.7
20260905101544 44 158 1.0 3.0 0.00 0.07 0.01 93 1011.6
20260905101450 44 158 1.0 3.0 0.00 0.07 0.01 93 1011.6
20260905101347 44 158 1.0 3.0 0.00 0.07 0.01 93 1011.6
20260905101251 44 158 1.0 3.0 0.00 0.07 0.01 93 1011.6
20260905101151 44 158 1.0 3.0 0.00 0.07 0.01 93 1011.6
20260905101056 44 158 0.0 3.0 0.00 0.07 0.01 93 1011.7
20260905100954 44 158 0.0 3.0 0.00 0.07 0.01 93 1011.6
20260905100905 44 158 0.0 3.0 0.00 0.07 0.01 93 1011.6
20260905100742 44 158 0.0 3.0 0.00 0.07 0.01 93 1011.7
20260905100709 44 158 0.0 3.0 0.00 0.07 0.01 93 1011.7
20260905100543 44 158 1.0 3.0 0.00 0.07 0.01 93 1011.6
20260905100501 44 158 1.0 3.0 0.00 0.07 0.01 93 1011.6
20260905100408 44 158 1.0 3.0 0.00 0.07 0.01 93 1011.6
20260905100257 44 158 1.0 3.0 0.00 0.07 0.01 93 1011.6
20260905100152 44 158 1.0 3.0 0.00 0.07 0.01 93 1011.6
20260905100045 44 158 2.0 3.0 0.00 0.07 0.01 93 1011.6
20260905095951 44 158 2.0 3.0 0.00 0.07 0.01 93 1011.6
20260905095847 44 158 2.0 3.0 0.00 0.07 0.01 93 1011.7
20260905095753 44 158 2.0 3.0 0.00 0.07 0.01 93 1011.7
20260905095721 44 158 2.0 3.0 0.00 0.07 0.01 93 1011.6
20260905095555 44 158 2.0 3.0 0.00 0.07 0.01 93 1011.6
20260905095459 44 158 1.0 3.0 0.00 0.07 0.01 93 1011.7
20260905095359 44 158 1.0 3.0 0.00 0.07 0.01 93 1011.6
20260905095306 44 158 1.0 3.0 0.00 0.07 0.01 93 1011.6
20260905095205 44 158 1.0 3.0 0.00 0.07 0.01 93 1011.7
20260905095108 44 158 1.0 3.0 0.00 0.07 0.01 93 1011.7
20260905095012 44 158 1.0 3.0 0.00 0.07 0.01 93 1011.7
20260905094848 44 158 1.0 3.0 0.00 0.07 0.01 93 1011.7
20260905094745 44 158 1.0 3.0 0.00 0.07 0.01 93 1011.7
20260905094657 44 158 0.0 1.0 0.00 0.07 0.01 93 1011.7
20260905094620 44 158 0.0 1.0 0.00 0.07 0.01 93 1011.7
20260905094455 44 158 0.0 0.0 0.00 0.07 0.01 93 1011.7
20260905094401 44 158 0.0 0.0 0.00 0.07 0.01 93 1011.7
20260905094319 44 158 0.0 0.0 0.00 0.07 0.01 93 1011.7
20260905094206 44 158 0.0 0.0 0.00 0.07 0.01 93 1011.7
20260905094101 44 158 0.0 0.0 0.00 0.07 0.01 93 1011.7
20260905093941 44 158 0.0 0.0 0.00 0.07 0.01 93 1011.7
20260905093848 44 158 0.0 0.0 0.00 0.07 0.01 93 1011.7
20260905093744 44 158 0.0 0.0 0.00 0.07 0.01 93 1011.7
20260905093714 44 158 0.0 0.0 0.00 0.07 0.01 93 1011.7
20260905093549 44 158 0.0 0.0 0.00 0.07 0.01 93 1011.7
20260905093456 44 158 0.0 0.0 0.00 0.07 0.01 93 1011.7
20260905093352 44 158 0.0 0.0 0.00 0.07 0.01 93 1011.7
20260905093300 44 158 0.0 0.0 0.00 0.07 0.01 93 1011.7
20260905093159 44 158 0.0 0.0 0.00 0.07 0.01 93 1011.7
20260905093056 44 158 0.0 1.0 0.00 0.07 0.01 93 1011.7
20260905093002 44 158 0.0 2.0 0.00 0.07 0.01 93 1011.8
20260905092900 44 158 0.0 2.0 0.00 0.07 0.01 93 1011.8
20260905092805 44 158 0.0 2.0 0.00 0.07 0.01 93 1011.8
20260905092648 44 158 0.0 2.0 0.00 0.07 0.01 93 1011.8
20260905092544 44 158 0.0 2.0 0.00 0.07 0.01 93 1011.8
20260905092447 44 158 0.0 2.0 0.00 0.07 0.01 93 1011.8
20260905092345 44 158 0.0 2.0 0.00 0.07 0.01 93 1011.8
20260905092312 44 158 1.0 2.0 0.00 0.07 0.01 93 1011.8
20260905092159 44 158 1.0 2.0 0.00 0.07 0.01 93 1011.8
20260905092053 44 158 1.0 2.0 0.00 0.07 0.01 93 1011.8
20260905091949 44 158 1.0 2.0 0.00 0.07 0.01 93 1011.8
20260905091858 44 158 1.0 2.0 0.00 0.07 0.01 93 1011.8
20260905091755 44 158 1.0 2.0 0.00 0.07 0.01 93 1011.9
20260905091702 44 158 1.0 2.0 0.00 0.07 0.01 93 1011.8
20260905091631 44 158 1.0 2.0 0.00 0.07 0.01 93 1011.8
20260905091506 44 158 1.0 2.0 0.00 0.07 0.01 93 1011.8
20260905091412 44 158 1.0 2.0 0.00 0.07 0.01 93 1011.8
20260905091248 44 158 1.0 3.0 0.00 0.07 0.01 93 1011.9
20260905091216 44 158 1.0 3.0 0.00 0.07 0.01 93 1011.8
20260905091123 44 158 1.0 5.0 0.00 0.07 0.01 93 1011.9
20260905091000 44 158 1.0 5.0 0.00 0.07 0.01 93 1011.9
20260905090926 44 158 1.0 5.0 0.00 0.07 0.01 93 1011.9
20260905090809 44 158 1.0 5.0 0.00 0.07 0.01 93 1011.8
20260905090646 44 158 1.0 5.0 0.00 0.07 0.01 93 1011.8
20260905090611 45 158 2.0 5.0 0.00 0.07 0.01 93 1011.8
20260905090446 45 158 1.0 5.0 0.00 0.07 0.01 93 1011.8
20260905090344 45 158 2.0 5.0 0.00 0.07 0.01 93 1011.8
20260905090303 45 158 2.0 5.0 0.00 0.07 0.01 93 1011.8
20260905090217 45 158 1.0 5.0 0.00 0.07 0.01 93 1011.8
20260905090100 45 157 2.0 5.0 0.00 0.07 0.01 93 1011.8
20260905085955 45 157 3.0 5.0 0.00 0.07 0.01 93 1011.8
20260905085922 45 157 2.0 5.0 0.00 0.07 0.01 92 1011.7
20260905085759 45 153 2.0 5.0 0.00 0.07 0.01 92 1011.8
20260905085707 45 152 2.0 3.0 0.00 0.07 0.01 92 1011.8
20260905085545 45 152 1.0 4.0 0.00 0.07 0.01 92 1011.7
20260905085503 45 152 2.0 4.0 0.00 0.07 0.01 92 1011.7
20260905085348 45 152 1.0 4.0 0.00 0.07 0.01 92 1011.7
20260905085315 45 152 2.0 4.0 0.00 0.07 0.01 92 1011.7
20260905085154 45 152 2.0 4.0 0.00 0.07 0.01 92 1011.7
20260905085119 45 152 2.0 4.0 0.00 0.07 0.01 92 1011.8
20260905084954 45 152 2.0 4.0 0.00 0.07 0.01 92 1011.8
20260905084920 45 152 2.0 4.0 0.00 0.07 0.01 92 1011.8
20260905084804 45 152 2.0 4.0 0.00 0.07 0.01 92 1011.8
20260905084646 45 152 2.0 4.0 0.00 0.07 0.01 92 1011.7
20260905084542 45 152 2.0 4.0 0.00 0.07 0.01 92 1011.7
20260905084507 45 152 2.0 4.0 0.00 0.07 0.01 92 1011.7
20260905084431 45 152 3.0 4.0 0.00 0.07 0.01 92 1011.7
20260905084241 45 152 2.0 4.0 0.00 0.07 0.01 92 1011.6
20260905084210 45 152 2.0 4.0 0.00 0.07 0.01 92 1011.6
20260905084044 45 152 2.0 4.0 0.00 0.07 0.01 92 1011.6
20260905084013 45 152 3.0 4.0 0.00 0.07 0.01 92 1011.6
20260905083853 45 152 2.0 4.0 0.00 0.07 0.01 92 1011.6
20260905083751 45 152 2.0 4.0 0.00 0.07 0.01 92 1011.4
20260905083651 45 152 2.0 3.0 0.01 0.07 0.01 92 1011.4
20260905083615 45 152 2.0 3.0 0.01 0.07 0.01 92 1011.4
20260905083520 45 152 1.0 3.0 0.01 0.07 0.01 92 1011.4
20260905083403 45 152 1.0 3.0 0.01 0.07 0.01 92 1011.4
20260905083257 45 152 2.0 3.0 0.01 0.07 0.01 92 1011.4
20260905083153 45 152 2.0 3.0 0.01 0.07 0.01 92 1011.4
20260905083105 45 152 2.0 3.0 0.01 0.07 0.01 92 1011.4
20260905083029 45 151 1.0 2.0 0.01 0.07 0.01 92 1011.4
20260905082845 45 151 0.0 2.0 0.01 0.07 0.01 92 1011.4
20260905082813 45 151 0.0 0.0 0.01 0.07 0.01 92 1011.4
20260905082650 45 151 0.0 0.0 0.01 0.07 0.01 92 1011.4
20260905082545 45 151 0.0 0.0 0.01 0.07 0.01 92 1011.4
20260905082451 45 151 0.0 0.0 0.01 0.07 0.01 92 1011.4
20260905082351 45 151 0.0 0.0 0.01 0.07 0.01 92 1011.4
20260905082258 45 151 0.0 0.0 0.01 0.07 0.01 92 1011.4
20260905082157 45 151 0.0 0.0 0.01 0.07 0.01 92 1011.4
20260905082101 45 151 0.0 0.0 0.01 0.07 0.01 92 1011.4
20260905081957 46 151 0.0 0.0 0.01 0.07 0.01 92 1011.4
20260905081855 46 151 0.0 1.0 0.01 0.07 0.01 92 1011.4
20260905081806 46 151 0.0 1.0 0.01 0.07 0.01 92 1011.4
20260905081732 46 151 0.0 2.0 0.01 0.07 0.01 92 1011.3
20260905081546 46 151 0.0 4.0 0.01 0.07 0.01 92 1011.3
20260905081443 46 151 0.0 4.0 0.01 0.07 0.01 92 1011.3
20260905081350 46 151 0.0 4.0 0.01 0.07 0.01 92 1011.3
20260905081247 46 151 0.0 4.0 0.01 0.07 0.01 92 1011.3
20260905081146 46 151 0.0 4.0 0.01 0.07 0.01 92 1011.4
20260905081056 46 151 0.0 4.0 0.01 0.07 0.01 92 1011.3
20260905080947 46 151 1.0 5.0 0.01 0.07 0.01 92 1011.3
20260905080853 46 151 2.0 5.0 0.01 0.07 0.01 92 1011.3
20260905080750 46 151 2.0 5.0 0.01 0.07 0.01 92 1011.3
20260905080657 46 151 1.0 5.0 0.01 0.07 0.01 92 1011.3
20260905080552 46 150 1.0 5.0 0.01 0.07 0.01 92 1011.3
20260905080459 46 150 1.0 5.0 0.01 0.07 0.01 92 1011.3
20260905080341 46 150 1.0 5.0 0.01 0.07 0.01 92 1011.2
20260905080258 46 150 2.0 5.0 0.01 0.07 0.01 92 1011.2
20260905080143 46 150 3.0 5.0 0.01 0.07 0.01 92 1011.3
20260905080108 46 150 4.0 5.0 0.01 0.07 0.01 92 1011.2
20260905075945 46 150 4.0 5.0 0.01 0.07 0.01 92 1011.2
20260905075852 46 150 3.0 5.0 0.01 0.07 0.01 92 1011.2
20260905075749 46 150 3.0 5.0 0.01 0.07 0.01 92 1011.2
20260905075718 46 150 3.0 5.0 0.01 0.07 0.01 92 1011.2
20260905075606 46 149 3.0 4.0 0.01 0.07 0.01 92 1011.2
20260905075501 46 149 3.0 4.0 0.01 0.07 0.01 92 1011.2
20260905075359 46 149 3.0 4.0 0.01 0.07 0.01 92 1011.2
20260905075306 46 149 3.0 4.0 0.01 0.07 0.01 92 1011.2
20260905075144 46 149 2.0 4.0 0.01 0.07 0.01 92 1011.2
20260905075044 46 149 1.0 3.0 0.01 0.07 0.01 92 1011.1
20260905074951 46 149 0.0 1.0 0.01 0.07 0.01 91 1011.1
20260905074848 46 149 0.0 1.0 0.01 0.07 0.01 91 1011.1
20260905074813 46 149 0.0 1.0 0.01 0.07 0.01 91 1011.2
20260905074719 46 149 0.0 1.0 0.01 0.07 0.01 91 1011.1
20260905074553 46 149 0.0 2.0 0.01 0.07 0.01 91 1011.1
20260905074459 46 149 0.0 2.0 0.01 0.07 0.01 91 1011.1
20260905074355 46 149 0.0 2.0 0.01 0.07 0.01 91 1011.1
20260905074306 46 149 0.0 2.0 0.01 0.07 0.01 91 1011.1
20260905074203 46 149 0.0 2.0 0.01 0.07 0.01 91 1011.1
20260905074131 46 149 0.0 2.0 0.01 0.07 0.01 91 1011.1
20260905073943 46 149 1.0 2.0 0.01 0.07 0.01 91 1011.0
20260905073910 46 149 1.0 2.0 0.01 0.07 0.01 91 1011.0
20260905073746 46 149 1.0 2.0 0.01 0.07 0.01 91 1011.0
20260905073714 46 149 0.0 2.0 0.00 0.06 0.00 91 1011.0
20260905073547 46 149 0.0 2.0 0.00 0.06 0.00 91 1011.0
20260905073518 46 149 0.0 2.0 0.00 0.06 0.00 91 1011.0
20260905073403 46 149 0.0 2.0 0.00 0.06 0.00 91 1011.0
20260905073258 46 149 0.0 3.0 0.00 0.06 0.00 91 1011.0
20260905073146 46 149 0.0 4.0 0.00 0.06 0.00 91 1011.0
20260905073041 46 149 1.0 4.0 0.00 0.06 0.00 91 1010.9
20260905073008 46 149 1.0 4.0 0.00 0.06 0.00 91 1010.9
20260905072845 46 149 1.0 4.0 0.00 0.06 0.00 91 1010.9
20260905072746 46 149 1.0 4.0 0.00 0.06 0.00 91 1010.8
20260905072655 46 149 1.0 4.0 0.00 0.06 0.00 91 1010.8
20260905072551 46 149 2.0 4.0 0.00 0.06 0.00 91 1010.8
20260905072456 46 149 2.0 4.0 0.00 0.06 0.00 91 1010.8
20260905072354 46 149 2.0 4.0 0.00 0.06 0.00 91 1010.9
20260905072305 46 149 2.0 4.0 0.00 0.06 0.00 91 1010.9
20260905072157 46 149 2.0 4.0 0.00 0.06 0.00 91 1010.9
20260905072109 46 149 2.0 3.0 0.00 0.06 0.00 91 1010.9
20260905071944 46 149 1.0 4.0 0.00 0.06 0.00 91 1010.9
20260905071841 46 149 1.0 4.0 0.00 0.06 0.00 91 1010.9
20260905071747 46 149 1.0 4.0 0.00 0.06 0.00 91 1010.9
20260905071645 47 149 1.0 4.0 0.00 0.06 0.00 91 1010.9
20260905071611 47 149 2.0 4.0 0.00 0.06 0.00 91 1010.9
20260905071510 47 149 2.0 4.0 0.00 0.06 0.00 91 1010.8
20260905071355 47 149 2.0 4.0 0.00 0.06 0.00 91 1010.9
20260905071300 47 149 2.0 4.0 0.00 0.06 0.00 91 1010.8
20260905071155 47 149 2.0 4.0 0.00 0.06 0.00 91 1010.8
20260905071049 47 149 2.0 4.0 0.00 0.06 0.00 91 1010.8
20260905071016 47 149 1.0 4.0 0.00 0.06 0.00 91 1010.8
20260905070900 47 149 1.0 4.0 0.00 0.06 0.00 91 1010.8
20260905070741 47 149 1.0 5.0 0.00 0.06 0.00 91 1010.8
20260905070710 47 149 1.0 5.0 0.00 0.06 0.00 91 1010.8
20260905070605 47 149 2.0 5.0 0.00 0.06 0.00 91 1010.8
20260905070530 47 149 2.0 5.0 0.00 0.06 0.00 91 1010.8
20260905070346 47 149 2.0 5.0 0.00 0.06 0.00 91 1010.8
20260905070322 47 149 2.0 5.0 0.00 0.06 0.00 91 1010.8
20260905070154 47 149 2.0 5.0 0.00 0.06 0.00 91 1010.8
20260905070050 47 149 2.0 5.0 0.00 0.06 0.06 91 1010.7
20260905065951 47 149 3.0 5.0 0.00 0.06 0.06 91 1010.7
20260905065858 47 149 3.0 5.0 0.00 0.06 0.06 91 1010.7
20260905065754 47 150 3.0 5.0 0.00 0.06 0.06 91 1010.7
20260905065701 47 150 2.0 5.0 0.00 0.06 0.06 91 1010.7
20260905065557 47 150 2.0 5.0 0.00 0.06 0.06 91 1010.7
20260905065504 47 150 2.0 5.0 0.00 0.06 0.06 91 1010.7
20260905065345 47 150 3.0 5.0 0.00 0.06 0.06 91 1010.7
20260905065243 47 150 3.0 5.0 0.00 0.06 0.06 91 1010.7
20260905065211 47 150 3.0 5.0 0.00 0.06 0.06 91 1010.7
20260905065114 47 152 3.0 5.0 0.00 0.06 0.06 91 1010.7
20260905064950 47 152 3.0 5.0 0.00 0.06 0.06 91 1010.7
20260905064856 47 152 3.0 5.0 0.00 0.06 0.06 91 1010.7
20260905064813 47 152 3.0 5.0 0.00 0.06 0.06 91 1010.7
20260905064700 47 152 3.0 5.0 0.00 0.06 0.06 91 1010.7
20260905064626 47 152 3.0 5.0 0.00 0.06 0.06 91 1010.7
20260905064444 47 152 3.0 5.0 0.00 0.06 0.06 91 1010.7
20260905064410 47 152 3.0 5.0 0.00 0.06 0.06 91 1010.7
20260905064247 47 152 2.0 4.0 0.00 0.06 0.06 91 1010.6
20260905064208 48 152 1.0 4.0 0.00 0.06 0.06 91 1010.6
20260905064043 48 152 1.0 4.0 0.00 0.06 0.06 91 1010.6
20260905063941 48 152 1.0 4.0 0.00 0.06 0.06 91 1010.5
20260905063851 48 152 1.0 5.0 0.00 0.06 0.06 91 1010.5
20260905063746 48 152 2.0 5.0 0.00 0.06 0.06 91 1010.5
20260905063653 48 152 2.0 5.0 0.00 0.06 0.06 91 1010.5
20260905063548 48 152 3.0 5.0 0.00 0.06 0.06 91 1010.5
20260905063453 48 152 3.0 5.0 0.00 0.06 0.06 91 1010.5
20260905063350 48 152 3.0 5.0 0.00 0.06 0.06 91 1010.4
20260905063254 48 152 3.0 5.0 0.00 0.06 0.06 91 1010.4
20260905063154 48 153 3.0 5.0 0.00 0.06 0.06 90 1010.4
20260905063102 48 153 3.0 5.0 0.00 0.06 0.06 90 1010.5
20260905063000 48 153 2.0 3.0 0.00 0.06 0.06 91 1010.5
20260905062844 48 153 2.0 3.0 0.00 0.06 0.06 91 1010.5
20260905062801 48 153 2.0 3.0 0.00 0.06 0.06 91 1010.5
20260905062707 48 153 2.0 3.0 0.00 0.06 0.06 91 1010.5
20260905062542 48 153 2.0 4.0 0.00 0.06 0.06 91 1010.5
20260905062443 48 153 2.0 4.0 0.00 0.06 0.06 91 1010.5
20260905062349 48 153 2.0 5.0 0.00 0.06 0.06 91 1010.4
20260905062244 48 153 1.0 5.0 0.00 0.06 0.06 90 1010.4
20260905062213 48 153 2.0 5.0 0.00 0.06 0.06 90 1010.4
20260905062048 48 153 1.0 5.0 0.00 0.06 0.06 90 1010.4
20260905061954 48 153 1.0 5.0 0.00 0.06 0.06 90 1010.3
20260905061851 48 153 2.0 5.0 0.00 0.06 0.06 90 1010.4
20260905061755 48 153 2.0 5.0 0.00 0.06 0.06 90 1010.4
20260905061656 48 153 3.0 5.0 0.00 0.06 0.06 90 1010.4
20260905061601 48 153 3.0 5.0 0.00 0.06 0.06 90 1010.4
20260905061527 48 153 3.0 5.0 0.00 0.06 0.06 90 1010.4
20260905061343 48 153 3.0 5.0 0.00 0.06 0.06 90 1010.4
20260905061310 48 153 3.0 5.0 0.00 0.06 0.06 90 1010.4
20260905061148 48 153 2.0 5.0 0.00 0.06 0.06 90 1010.4
20260905061042 48 153 2.0 7.0 0.00 0.06 0.06 90 1010.4
20260905060951 48 153 2.0 7.0 0.00 0.06 0.06 90 1010.4
20260905060857 48 153 2.0 7.0 0.00 0.06 0.06 90 1010.4
20260905060753 49 153 2.0 7.0 0.00 0.06 0.06 90 1010.4
20260905060651 49 153 3.0 7.0 0.00 0.06 0.06 90 1010.4
20260905060554 49 153 4.0 7.0 0.00 0.06 0.06 90 1010.4
20260905060450 49 153 4.0 7.0 0.00 0.06 0.06 90 1010.4
20260905060357 49 153 3.0 7.0 0.00 0.06 0.06 90 1010.4
20260905060308 49 153 3.0 7.0 0.00 0.06 0.06 90 1010.4
20260905060200 49 154 3.0 5.0 0.00 0.06 0.06 90 1010.4
20260905060108 49 154 3.0 5.0 0.00 0.06 0.06 90 1010.4
20260905060001 49 154 3.0 7.0 0.00 0.06 0.06 90 1010.5
20260905055928 49 154 3.0 7.0 0.00 0.06 0.06 90 1010.5
20260905055745 49 154 4.0 7.0 0.00 0.06 0.06 90 1010.5
20260905055644 49 154 4.0 7.0 0.00 0.06 0.06 90 1010.5
20260905055551 49 154 3.0 7.0 0.00 0.06 0.06 90 1010.5
20260905055448 49 154 4.0 7.0 0.00 0.06 0.06 90 1010.5
20260905055354 49 154 4.0 7.0 0.00 0.06 0.06 90 1010.5
20260905055249 49 154 4.0 7.0 0.00 0.06 0.06 90 1010.6
20260905055216 49 154 4.0 7.0 0.00 0.06 0.06 90 1010.6
20260905055051 49 154 3.0 6.0 0.00 0.06 0.06 90 1010.6
20260905054957 49 154 4.0 6.0 0.00 0.06 0.06 90 1010.6
20260905054923 49 155 4.0 6.0 0.00 0.06 0.06 90 1010.5
20260905054803 49 194 3.0 6.0 0.00 0.06 0.06 90 1010.6
20260905054649 49 205 3.0 6.0 0.01 0.06 0.06 90 1010.5
20260905054545 49 207 3.0 6.0 0.01 0.06 0.06 90 1010.6
20260905054451 49 207 3.0 6.0 0.01 0.06 0.06 90 1010.5
20260905054414 49 207 3.0 6.0 0.01 0.06 0.06 90 1010.5
20260905054331 49 211 3.0 5.0 0.01 0.06 0.06 90 1010.6
20260905054238 49 211 3.0 5.0 0.01 0.06 0.06 90 1010.6
20260905054101 49 211 3.0 5.0 0.01 0.06 0.06 90 1010.6
20260905053956 49 211 3.0 5.0 0.01 0.06 0.06 90 1010.6
20260905053847 49 211 3.0 5.0 0.01 0.06 0.06 90 1010.5
20260905053743 49 212 2.0 4.0 0.01 0.06 0.06 90 1010.5
20260905053708 50 212 3.0 4.0 0.01 0.06 0.06 90 1010.5
20260905053606 50 212 3.0 4.0 0.01 0.06 0.06 90 1010.5
20260905053531 50 212 3.0 4.0 0.01 0.06 0.06 90 1010.5
20260905053346 50 212 3.0 4.0 0.01 0.06 0.06 90 1010.5
20260905053252 50 212 3.0 4.0 0.01 0.06 0.06 89 1010.5
20260905053154 50 212 2.0 4.0 0.01 0.06 0.06 89 1010.6
20260905053119 50 212 2.0 4.0 0.02 0.06 0.06 89 1010.5
20260905053005 50 212 2.0 4.0 0.02 0.06 0.06 89 1010.5
20260905052842 50 212 2.0 4.0 0.02 0.06 0.06 89 1010.5
20260905052759 50 212 2.0 4.0 0.02 0.06 0.06 89 1010.5
20260905052647 50 212 1.0 4.0 0.03 0.06 0.06 89 1010.5
20260905052602 50 213 0.0 0.0 0.03 0.06 0.06 89 1010.5
20260905052451 50 213 0.0 2.0 0.03 0.06 0.06 89 1010.5
20260905052348 50 213 0.0 3.0 0.03 0.06 0.06 89 1010.5
20260905052255 50 213 0.0 3.0 0.03 0.06 0.06 89 1010.4
20260905052154 50 213 0.0 3.0 0.03 0.06 0.06 89 1010.4
20260905052050 50 213 0.0 3.0 0.03 0.06 0.06 89 1010.5
20260905052016 50 213 0.0 3.0 0.03 0.06 0.06 88 1010.4
20260905051901 50 213 0.0 3.0 0.03 0.06 0.06 89 1010.4
20260905051742 50 213 1.0 3.0 0.03 0.06 0.06 89 1010.4
20260905051710 50 213 1.0 3.0 0.03 0.06 0.06 89 1010.4
20260905051546 50 213 1.0 3.0 0.03 0.06 0.06 88 1010.4
20260905051504 50 213 2.0 3.0 0.03 0.06 0.06 88 1010.4
20260905051350 50 213 2.0 3.0 0.03 0.06 0.06 88 1010.4
20260905051248 50 213 2.0 3.0 0.03 0.06 0.06 88 1010.4
20260905051157 50 213 2.0 3.0 0.03 0.06 0.06 88 1010.3
20260905051056 50 213 2.0 3.0 0.03 0.06 0.06 88 1010.4
20260905051002 50 213 2.0 3.0 0.03 0.06 0.06 88 1010.4
20260905050858 50 213 2.0 3.0 0.03 0.06 0.06 88 1010.3
20260905050803 50 213 1.0 3.0 0.03 0.06 0.06 88 1010.3
20260905050702 50 213 1.0 3.0 0.03 0.06 0.06 88 1010.3
20260905050556 50 213 2.0 3.0 0.03 0.06 0.06 88 1010.4
20260905050507 50 213 2.0 3.0 0.03 0.06 0.06 88 1010.4
20260905050344 50 213 2.0 3.0 0.03 0.06 0.06 88 1010.4
20260905050320 50 213 2.0 3.0 0.03 0.06 0.06 88 1010.4
20260905050146 50 213 1.0 3.0 0.03 0.06 0.06 88 1010.4
20260905050042 50 213 0.0 3.0 0.03 0.06 0.06 88 1010.4
20260905045948 50 213 0.0 3.0 0.03 0.06 0.06 88 1010.4
20260905045849 50 213 0.0 3.0 0.03 0.06 0.06 87 1010.3
20260905045756 50 213 1.0 3.0 0.03 0.06 0.06 87 1010.4
20260905045713 50 213 2.0 4.0 0.03 0.06 0.06 87 1010.3
20260905045555 50 213 2.0 5.0 0.03 0.06 0.06 87 1010.4
20260905045453 50 213 1.0 6.0 0.03 0.06 0.06 87 1010.4
20260905045400 50 213 1.0 6.0 0.03 0.06 0.06 87 1010.4
20260905045258 50 213 2.0 6.0 0.03 0.06 0.06 87 1010.5
20260905045210 50 213 1.0 6.0 0.03 0.06 0.06 87 1010.5
20260905045043 51 213 1.0 6.0 0.03 0.06 0.06 87 1010.4
20260905044941 51 213 2.0 6.0 0.03 0.06 0.06 87 1010.4
20260905044844 51 213 3.0 6.0 0.03 0.06 0.06 87 1010.5
20260905044741 51 213 4.0 6.0 0.02 0.05 0.05 87 1010.5
20260905044650 51 213 4.0 6.0 0.02 0.05 0.05 87 1010.6
20260905044546 51 213 4.0 6.0 0.02 0.05 0.05 86 1010.5
20260905044457 51 213 4.0 6.0 0.02 0.05 0.05 86 1010.6
20260905044352 51 213 3.0 4.0 0.02 0.05 0.05 86 1010.5
20260905044318 51 213 3.0 4.0 0.02 0.05 0.05 86 1010.5
20260905044157 51 213 2.0 4.0 0.02 0.05 0.05 86 1010.5
20260905044101 51 213 2.0 4.0 0.02 0.05 0.05 86 1010.5
20260905043958 51 213 2.0 4.0 0.02 0.05 0.05 85 1010.5
20260905043843 51 213 2.0 4.0 0.02 0.05 0.05 85 1010.5
20260905043743 51 213 2.0 4.0 0.02 0.05 0.05 85 1010.5
20260905043711 51 213 1.0 2.0 0.02 0.05 0.05 85 1010.5
20260905043546 51 213 1.0 2.0 0.02 0.05 0.05 84 1010.4
20260905043442 51 213 0.0 2.0 0.02 0.05 0.05 84 1010.4
20260905043348 51 213 0.0 2.0 0.02 0.05 0.05 84 1010.3
20260905043242 51 213 1.0 2.0 0.02 0.05 0.05 84 1010.3
20260905043148 51 213 1.0 2.0 0.02 0.05 0.05 84 1010.3
20260905043054 51 213 1.0 2.0 0.01 0.04 0.04 84 1010.3
20260905042948 51 213 1.0 2.0 0.01 0.04 0.04 83 1010.3
20260905042845 51 213 0.0 2.0 0.01 0.04 0.04 83 1010.3
20260905042751 51 213 0.0 3.0 0.01 0.04 0.04 83 1010.4
20260905042649 51 213 0.0 3.0 0.00 0.03 0.03 83 1010.4
20260905042553 51 213 0.0 3.0 0.00 0.03 0.03 82 1010.4
20260905042451 51 213 0.0 3.0 0.00 0.03 0.03 82 1010.4
20260905042402 51 213 0.0 3.0 0.00 0.03 0.03 82 1010.4
20260905042259 51 213 1.0 3.0 0.00 0.03 0.03 82 1010.4
20260905042159 51 213 1.0 3.0 0.00 0.03 0.03 82 1010.4
20260905042051 51 213 1.0 3.0 0.00 0.03 0.03 82 1010.4
20260905041949 51 213 1.0 3.0 0.00 0.03 0.03 82 1010.4
20260905041856 51 213 1.0 3.0 0.00 0.03 0.03 82 1010.5
20260905041758 51 213 1.0 4.0 0.00 0.03 0.03 82 1010.4
20260905041707 51 213 1.0 4.0 0.00 0.03 0.03 82 1010.4
20260905041542 51 213 1.0 4.0 0.00 0.03 0.03 82 1010.4
20260905041508 51 213 1.0 4.0 0.00 0.03 0.03 82 1010.4
20260905041346 51 213 2.0 4.0 0.00 0.03 0.03 81 1010.4
20260905041244 51 213 2.0 4.0 0.00 0.03 0.03 81 1010.4
20260905041156 51 213 2.0 4.0 0.00 0.03 0.03 81 1010.4
20260905041051 51 213 2.0 4.0 0.00 0.03 0.03 81 1010.4
20260905040947 51 213 3.0 5.0 0.00 0.03 0.03 81 1010.5
20260905040854 51 213 3.0 5.0 0.00 0.03 0.03 81 1010.5
20260905040751 51 213 3.0 5.0 0.00 0.03 0.03 81 1010.5
20260905040659 51 213 2.0 5.0 0.00 0.03 0.03 81 1010.5
20260905040552 51 213 2.0 5.0 0.00 0.03 0.03 81 1010.5
20260905040443 51 213 1.0 5.0 0.00 0.03 0.03 81 1010.5
20260905040401 51 213 2.0 5.0 0.00 0.03 0.03 81 1010.5
20260905040258 51 213 2.0 5.0 0.00 0.03 0.03 81 1010.5
20260905040204 51 213 3.0 6.0 0.00 0.03 0.03 81 1010.6
20260905040046 51 213 3.0 6.0 0.00 0.03 0.03 81 1010.5
20260905035941 51 214 2.0 6.0 0.00 0.03 0.03 81 1010.6
20260905035906 51 214 2.0 6.0 0.00 0.03 0.03 81 1010.5
20260905035757 51 215 1.0 6.0 0.00 0.03 0.03 80 1010.5
20260905035715 51 215 1.0 6.0 0.00 0.03 0.03 80 1010.5
20260905035558 51 215 2.0 6.0 0.00 0.03 0.03 80 1010.5
20260905035455 51 215 3.0 6.0 0.00 0.03 0.03 80 1010.5
20260905035402 51 215 4.0 6.0 0.00 0.03 0.03 80 1010.5
20260905035258 51 214 4.0 6.0 0.00 0.03 0.03 80 1010.5
20260905035157 51 214 4.0 7.0 0.00 0.03 0.03 81 1010.5
20260905035047 51 214 4.0 7.0 0.00 0.03 0.03 81 1010.5
20260905034943 51 214 4.0 7.0 0.00 0.03 0.03 80 1010.6
20260905034909 51 214 4.0 7.0 0.00 0.03 0.03 81 1010.6
20260905034747 51 214 3.0 7.0 0.00 0.03 0.03 81 1010.5
20260905034646 51 214 3.0 7.0 0.00 0.03 0.03 80 1010.5
20260905034551 51 214 3.0 7.0 0.00 0.03 0.03 80 1010.5
20260905034453 51 214 4.0 7.0 0.00 0.03 0.03 80 1010.6
20260905034359 51 215 5.0 7.0 0.00 0.03 0.03 80 1010.5
20260905034257 51 214 6.0 7.0 0.00 0.03 0.03 80 1010.5
20260905034206 51 214 4.0 7.0 0.00 0.03 0.03 80 1010.5
20260905034100 51 216 4.0 7.0 0.00 0.03 0.03 80 1010.5
20260905034003 51 216 5.0 7.0 0.00 0.03 0.03 80 1010.5
20260905033909 51 203 5.0 7.0 0.00 0.03 0.03 80 1010.5
20260905033742 51 202 5.0 7.0 0.00 0.03 0.03 80 1010.5
20260905033709 51 225 4.0 7.0 0.00 0.03 0.03 80 1010.5
20260905033556 51 225 4.0 7.0 0.00 0.03 0.03 81 1010.4
20260905033454 51 226 3.0 6.0 0.00 0.03 0.03 81 1010.4
20260905033420 51 226 2.0 6.0 0.00 0.03 0.03 81 1010.4
20260905033257 51 226 2.0 6.0 0.00 0.03 0.03 81 1010.4
20260905033202 52 226 2.0 6.0 0.00 0.03 0.03 81 1010.4
20260905033058 52 226 3.0 7.0 0.00 0.03 0.03 81 1010.4
20260905032956 52 226 3.0 7.0 0.00 0.03 0.03 81 1010.4
20260905032847 52 226 3.0 7.0 0.00 0.03 0.03 81 1010.3
20260905032745 52 226 3.0 7.0 0.00 0.03 0.03 80 1010.4
20260905032643 52 227 3.0 7.0 0.00 0.03 0.03 80 1010.4
20260905032549 52 227 4.0 7.0 0.00 0.03 0.03 80 1010.3
20260905032445 52 227 4.0 7.0 0.00 0.03 0.03 80 1010.3
20260905032349 52 227 4.0 7.0 0.00 0.03 0.03 80 1010.2
20260905032319 52 227 5.0 7.0 0.00 0.03 0.03 80 1010.3
20260905032157 52 227 4.0 7.0 0.00 0.03 0.03 80 1010.2
20260905032101 52 227 4.0 7.0 0.00 0.03 0.03 80 1010.2
20260905031957 52 227 4.0 7.0 0.00 0.03 0.03 80 1010.2
20260905031904 52 227 5.0 7.0 0.00 0.03 0.03 79 1010.2
20260905031741 52 228 5.0 7.0 0.00 0.03 0.03 79 1010.1
20260905031659 52 255 4.0 7.0 0.00 0.03 0.03 79 1010.1
20260905031547 52 281 3.0 4.0 0.00 0.03 0.03 79 1010.0
20260905031445 52 281 3.0 4.0 0.00 0.03 0.03 79 1010.0
20260905031411 52 281 3.0 4.0 0.00 0.03 0.03 79 1010.0
20260905031248 52 281 3.0 4.0 0.00 0.03 0.03 79 1010.0
20260905031155 53 281 3.0 4.0 0.00 0.03 0.03 79 1010.0
20260905031051 53 281 2.0 4.0 0.00 0.03 0.03 79 1010.0
20260905030947 53 281 3.0 4.0 0.00 0.03 0.03 78 1010.0
20260905030858 53 281 3.0 4.0 0.00 0.03 0.03 78 1010.0
20260905030803 53 281 2.0 4.0 0.00 0.03 0.03 78 1010.1
20260905030701 53 281 2.0 6.0 0.00 0.03 0.03 78 1010.0
20260905030544 53 281 1.0 6.0 0.00 0.03 0.03 79 1010.0
20260905030441 53 281 2.0 6.0 0.00 0.03 0.03 79 1010.0
20260905030408 53 281 2.0 6.0 0.00 0.03 0.03 79 1010.0
20260905030256 53 281 2.0 6.0 0.00 0.03 0.03 78 1010.0
20260905030214 53 281 2.0 6.0 0.00 0.03 0.03 78 1010.0
20260905030048 53 281 3.0 6.0 0.00 0.03 0.03 78 1009.9
20260905025953 53 281 3.0 6.0 0.00 0.03 0.03 78 1010.0
20260905025850 53 281 4.0 6.0 0.00 0.03 0.03 78 1009.9
20260905025745 53 281 4.0 6.0 0.00 0.03 0.03 78 1009.9
20260905025654 53 281 3.0 4.0 0.00 0.03 0.03 78 1009.9
20260905025550 53 281 2.0 4.0 0.00 0.03 0.03 78 1009.9
20260905025502 53 281 2.0 4.0 0.00 0.03 0.03 78 1009.9
20260905025358 53 281 3.0 4.0 0.00 0.03 0.03 78 1009.9
20260905025306 53 281 3.0 4.0 0.00 0.03 0.03 78 1009.9
20260905025210 53 281 3.0 4.0 0.00 0.03 0.03 78 1009.9
20260905025044 54 281 3.0 4.0 0.00 0.03 0.03 78 1010.0
20260905024941 54 281 3.0 4.0 0.00 0.03 0.03 78 1009.9
20260905024852 54 281 3.0 4.0 0.00 0.03 0.03 78 1009.9
20260905024748 54 281 3.0 4.0 0.00 0.03 0.03 78 1009.9
20260905024717 54 281 3.0 4.0 0.00 0.03 0.03 78 1009.8
20260905024550 54 281 2.0 4.0 0.00 0.03 0.03 78 1009.9
20260905024458 54 281 2.0 3.0 0.00 0.03 0.03 77 1009.8
20260905024413 54 281 2.0 3.0 0.00 0.03 0.03 77 1009.8
20260905024257 54 281 2.0 3.0 0.00 0.03 0.03 77 1009.7
20260905024156 54 281 2.0 3.0 0.00 0.03 0.03 77 1009.7
20260905024104 54 281 2.0 3.0 0.00 0.03 0.03 77 1009.7
20260905024001 54 281 2.0 3.0 0.00 0.03 0.03 77 1009.7
20260905023906 54 281 2.0 3.0 0.00 0.03 0.03 77 1009.7
20260905023743 54 281 1.0 4.0 0.00 0.03 0.03 77 1009.7
20260905023643 54 281 1.0 4.0 0.00 0.03 0.03 77 1009.7
20260905023547 54 281 1.0 4.0 0.00 0.03 0.03 76 1009.7
20260905023443 54 281 1.0 4.0 0.00 0.03 0.03 76 1009.7
20260905023351 54 281 0.0 4.0 0.00 0.03 0.03 76 1009.7
20260905023258 54 281 1.0 6.0 0.00 0.03 0.03 76 1009.7
20260905023157 54 281 1.0 6.0 0.00 0.03 0.03 76 1009.8
20260905023053 54 281 2.0 6.0 0.00 0.03 0.03 76 1009.7
20260905023020 54 281 2.0 6.0 0.00 0.03 0.03 76 1009.7
20260905022754 54 281 3.0 6.0 0.00 0.03 0.03 75 1009.8
20260905022700 54 281 3.0 6.0 0.00 0.03 0.03 75 1009.8
20260905022627 54 281 3.0 6.0 0.00 0.03 0.03 74 1009.8
20260905022445 54 281 4.0 6.0 0.00 0.03 0.03 73 1009.8
20260905022342 54 281 3.0 6.0 0.00 0.03 0.03 73 1009.8
20260905022248 54 281 3.0 6.0 0.00 0.03 0.03 73 1009.8
20260905022148 55 281 3.0 6.0 0.00 0.03 0.03 73 1009.8
20260905022113 55 281 3.0 4.0 0.00 0.03 0.03 72 1009.8
20260905021950 55 281 2.0 3.0 0.00 0.03 0.03 72 1009.8
20260905021859 55 281 2.0 3.0 0.00 0.03 0.03 72 1009.8
20260905021756 55 281 1.0 3.0 0.00 0.03 0.03 72 1009.8
20260905021704 55 281 1.0 3.0 0.00 0.03 0.03 71 1009.8
20260905021620 55 281 1.0 3.0 0.00 0.03 0.03 71 1009.8
20260905021504 55 281 1.0 3.0 0.00 0.03 0.03 71 1009.8
20260905021429 55 281 2.0 3.0 0.00 0.03 0.03 71 1009.7
20260905021245 55 281 2.0 3.0 0.00 0.03 0.03 71 1009.7
20260905021147 55 281 2.0 3.0 0.00 0.03 0.03 71 1009.7
20260905021051 55 281 2.0 3.0 0.00 0.03 0.03 70 1009.7
20260905020956 55 281 2.0 3.0 0.00 0.03 0.03 70 1009.7
20260905020853 55 281 2.0 3.0 0.00 0.03 0.03 70 1009.7
20260905020757 55 281 2.0 3.0 0.00 0.03 0.03 69 1009.6
20260905020724 55 281 2.0 3.0 0.00 0.03 0.03 70 1009.6
20260905020619 55 281 2.0 3.0 0.00 0.03 0.03 70 1009.6
20260905020502 55 281 2.0 3.0 0.00 0.03 0.03 69 1009.6
20260905020401 55 281 1.0 3.0 0.00 0.03 0.03 70 1009.7
20260905020323 55 281 0.0 2.0 0.00 0.03 0.03 69 1009.7
20260905020149 55 281 0.0 3.0 0.00 0.03 0.03 69 1009.6
20260905020045 55 281 0.0 4.0 0.00 0.03 0.03 69 1009.6
20260905015951 55 281 0.0 4.0 0.00 0.03 0.03 69 1009.6
20260905015846 55 281 0.0 4.0 0.00 0.03 0.03 69 1009.6
20260905015753 55 281 0.0 4.0 0.00 0.03 0.03 69 1009.6
20260905015653 55 281 0.0 4.0 0.00 0.03 0.03 69 1009.5
20260905015616 55 281 1.0 4.0 0.00 0.03 0.03 69 1009.6
20260905015453 55 281 1.0 4.0 0.00 0.03 0.03 69 1009.5
20260905015359 55 281 2.0 4.0 0.00 0.03 0.03 69 1009.5
20260905015316 55 281 3.0 4.0 0.00 0.03 0.03 69 1009.5
20260905015143 55 281 2.0 4.0 0.00 0.03 0.03 69 1009.5
20260905015058 55 281 1.0 4.0 0.00 0.03 0.03 69 1009.5
20260905015005 55 281 1.0 4.0 0.00 0.03 0.03 69 1009.5
20260905014847 55 281 1.0 7.0 0.00 0.03 0.03 68 1009.4
20260905014745 55 281 2.0 7.0 0.00 0.03 0.03 68 1009.4
20260905014653 55 281 2.0 7.0 0.00 0.03 0.03 68 1009.4
20260905014619 55 281 3.0 7.0 0.00 0.03 0.03 68 1009.4
20260905014514 55 281 2.0 7.0 0.00 0.03 0.03 68 1009.4
20260905014419 55 281 2.0 7.0 0.00 0.03 0.03 68 1009.4
20260905014303 55 281 3.0 7.0 0.00 0.03 0.03 67 1009.4
20260905014205 55 281 4.0 7.0 0.00 0.03 0.03 67 1009.4
20260905014110 55 281 4.0 7.0 0.00 0.03 0.03 67 1009.4
20260905013946 56 281 4.0 7.0 0.00 0.03 0.03 66 1009.3
20260905013912 56 283 4.0 7.0 0.00 0.03 0.03 66 1009.3
20260905013749 56 283 4.0 7.0 0.00 0.03 0.03 66 1009.3
20260905013657 56 283 4.0 7.0 0.00 0.03 0.03 66 1009.3
20260905013614 56 283 3.0 7.0 0.00 0.03 0.03 66 1009.3
20260905013500 56 283 4.0 7.0 0.00 0.03 0.03 66 1009.3
20260905013341 56 283 3.0 7.0 0.00 0.03 0.03 66 1009.3
20260905013308 56 284 3.0 7.0 0.00 0.03 0.03 66 1009.3
20260905013205 56 284 4.0 7.0 0.00 0.03 0.03 66 1009.3
20260905013049 56 284 5.0 8.0 0.00 0.03 0.03 65 1009.3
20260905012947 56 284 4.0 8.0 0.00 0.03 0.03 66 1009.2
20260905012854 56 283 4.0 8.0 0.00 0.03 0.03 66 1009.3
20260905012752 56 283 4.0 8.0 0.00 0.03 0.03 67 1009.3
20260905012701 57 283 3.0 8.0 0.00 0.03 0.03 67 1009.2
20260905012557 57 283 4.0 8.0 0.00 0.03 0.03 66 1009.2
20260905012502 57 285 5.0 8.0 0.00 0.03 0.03 66 1009.2
20260905012400 57 283 5.0 8.0 0.00 0.03 0.03 67 1009.2
20260905012307 57 281 5.0 8.0 0.00 0.03 0.03 67 1009.2
20260905012146 57 277 3.0 8.0 0.00 0.03 0.03 67 1009.2
20260905012046 57 277 3.0 8.0 0.00 0.03 0.03 67 1009.2
20260905011953 57 277 2.0 8.0 0.00 0.03 0.03 67 1009.1
20260905011848 57 277 3.0 8.0 0.00 0.03 0.03 67 1009.1
20260905011746 57 277 3.0 8.0 0.00 0.03 0.03 67 1009.1
20260905011654 57 276 3.0 8.0 0.00 0.03 0.03 67 1009.2
20260905011549 57 277 3.0 8.0 0.00 0.03 0.03 67 1009.1
20260905011515 57 277 4.0 8.0 0.00 0.03 0.03 67 1009.1
20260905011402 58 277 6.0 8.0 0.00 0.03 0.03 67 1009.1
20260905011258 58 276 6.0 8.0 0.00 0.03 0.03 67 1009.1
20260905011143 58 277 5.0 8.0 0.00 0.03 0.03 67 1009.2
20260905011109 58 269 4.0 8.0 0.00 0.03 0.03 67 1009.2
20260905010944 58 299 4.0 8.0 0.00 0.03 0.03 67 1009.1
20260905010909 58 299 4.0 8.0 0.00 0.03 0.03 67 1009.1
20260905010746 58 300 4.0 8.0 0.00 0.03 0.03 67 1009.1
20260905010644 58 300 5.0 8.0 0.00 0.03 0.03 66 1009.1
20260905010614 58 301 5.0 8.0 0.00 0.03 0.03 66 1009.0
20260905010459 58 301 5.0 8.0 0.00 0.03 0.03 66 1009.1
20260905010355 58 310 5.0 8.0 0.00 0.03 0.03 66 1009.1
20260905010315 58 313 4.0 8.0 0.00 0.03 0.03 66 1009.1
20260905010158 58 262 4.0 8.0 0.00 0.03 0.03 67 1009.0
20260905010054 58 262 4.0 8.0 0.00 0.03 0.03 67 1009.0
20260905010000 58 262 4.0 7.0 0.00 0.03 0.03 67 1009.0
20260905005842 58 262 2.0 7.0 0.00 0.03 0.03 65 1009.0
20260905005746 58 262 2.0 7.0 0.00 0.03 0.03 64 1009.0
20260905005644 58 262 2.0 7.0 0.00 0.03 0.03 64 1009.0
20260905005547 58 262 2.0 7.0 0.00 0.03 0.03 63 1009.0
20260905005443 58 262 3.0 7.0 0.00 0.03 0.03 63 1009.0
20260905005349 58 262 4.0 7.0 0.00 0.03 0.03 62 1009.0
20260905005247 58 262 4.0 7.0 0.00 0.03 0.03 62 1009.0
20260905005157 58 262 4.0 7.0 0.00 0.03 0.03 63 1009.0
20260905005053 58 261 4.0 7.0 0.00 0.03 0.03 63 1009.0
20260905004950 58 261 3.0 7.0 0.00 0.03 0.03 64 1009.0
20260905004855 58 261 3.0 7.0 0.00 0.03 0.03 64 1009.0
20260905004753 58 261 3.0 8.0 0.00 0.03 0.03 64 1008.9
20260905004721 58 261 3.0 9.0 0.00 0.03 0.03 64 1009.0
20260905004603 58 261 4.0 9.0 0.00 0.03 0.03 64 1008.9
20260905004444 58 261 4.0 9.0 0.00 0.03 0.03 64 1008.9
20260905004341 58 261 4.0 9.0 0.00 0.03 0.03 65 1008.9
20260905004307 58 262 4.0 9.0 0.00 0.03 0.03 66 1008.9
20260905004146 57 242 4.0 9.0 0.00 0.03 0.03 65 1008.9
20260905004049 57 244 4.0 9.0 0.00 0.03 0.03 66 1008.9
20260905004016 57 245 5.0 9.0 0.00 0.03 0.03 67 1008.9
20260905003920 57 245 6.0 9.0 0.00 0.03 0.03 69 1008.9
20260905003740 57 229 3.0 7.0 0.00 0.03 0.03 68 1008.8
20260905003708 57 229 3.0 7.0 0.00 0.03 0.03 68 1008.8
20260905003544 57 231 3.0 5.0 0.00 0.03 0.03 67 1008.8
20260905003442 57 231 3.0 5.0 0.00 0.03 0.03 66 1008.8
20260905003408 57 231 3.0 5.0 0.00 0.03 0.03 66 1008.8
20260905003304 57 233 4.0 5.0 0.00 0.03 0.03 65 1008.8
20260905003151 57 233 4.0 5.0 0.00 0.03 0.03 66 1008.8
20260905003051 57 233 3.0 5.0 0.00 0.03 0.03 66 1008.7
20260905002957 57 233 2.0 6.0 0.00 0.03 0.03 66 1008.7
20260905002855 57 269 2.0 6.0 0.00 0.03 0.03 66 1008.7
20260905002822 57 269 2.0 6.0 0.00 0.03 0.03 66 1008.7
20260905002659 57 269 3.0 6.0 0.00 0.03 0.03 67 1008.7
20260905002543 57 269 4.0 6.0 0.00 0.03 0.03 67 1008.6
20260905002500 57 269 3.0 6.0 0.00 0.03 0.03 68 1008.6
20260905002349 57 270 3.0 6.0 0.00 0.03 0.03 68 1008.6
20260905002247 57 270 3.0 6.0 0.00 0.03 0.03 68 1008.6
20260905002147 57 270 3.0 4.0 0.00 0.03 0.03 69 1008.6
20260905002052 57 271 2.0 4.0 0.00 0.03 0.03 69 1008.6
20260905001957 56 271 1.0 4.0 0.00 0.03 0.03 69 1008.6
20260905001853 56 271 0.0 4.0 0.00 0.03 0.03 69 1008.6
20260905001749 56 271 1.0 5.0 0.00 0.03 0.03 69 1008.6
20260905001655 56 271 1.0 5.0 0.00 0.03 0.03 69 1008.6
20260905001542 56 271 1.0 5.0 0.00 0.03 0.03 69 1008.6
20260905001509 56 271 1.0 5.0 0.00 0.03 0.03 70 1008.6
20260905001346 56 271 3.0 6.0 0.00 0.03 0.03 71 1008.5
20260905001244 56 271 3.0 10.0 0.00 0.03 0.03 73 1008.5
20260905001143 56 271 3.0 10.0 0.00 0.03 0.03 73 1008.6
20260905001048 56 238 3.0 10.0 0.00 0.03 0.03 74 1008.5
20260905000949 56 238 4.0 10.0 0.00 0.03 0.03 76 1008.6
20260905000855 56 238 4.0 10.0 0.00 0.03 0.03 76 1008.6
20260905000800 56 238 3.0 10.0 0.00 0.03 0.03 76 1008.6
20260905000658 56 238 4.0 10.0 0.01 0.03 0.03 77 1008.6
20260905000555 56 238 5.0 10.0 0.01 0.03 0.03 79 1008.6
20260905000502 55 229 5.0 10.0 0.01 0.03 0.03 79 1008.5
20260905000429 55 258 5.0 10.0 0.01 0.03 0.03 81 1008.5
20260905000258 55 250 5.0 8.0 0.02 0.03 0.03 82 1008.6
20260905000205 55 252 4.0 8.0 0.02 0.03 0.03 81 1008.6
20260905000041 54 242 3.0 8.0 0.02 0.03 0.03 81 1008.6
20260904235959 54 277 3.0 8.0 0.03 0.03 0.03 81 1008.6
20260904235906 54 277 3.0 8.0 0.03 0.03 0.03 82 1008.6
20260904235743 54 275 4.0 8.0 0.03 0.03 0.03 82 1008.7
20260904235651 54 275 4.0 8.0 0.03 0.03 0.03 82 1008.7
20260904235556 54 274 3.0 8.0 0.03 0.03 0.03 82 1008.7
20260904235517 54 284 3.0 8.0 0.03 0.03 0.03 83 1008.7
20260904235403 54 284 4.0 8.0 0.03 0.03 0.03 83 1008.7
20260904235246 53 284 4.0 8.0 0.03 0.03 0.03 82 1008.7
20260904235204 53 283 4.0 8.0 0.03 0.03 0.03 82 1008.6
20260904235047 53 283 4.0 8.0 0.03 0.03 0.03 82 1008.7
20260904234945 53 282 4.0 8.0 0.03 0.03 0.03 82 1008.7
20260904234851 53 281 2.0 8.0 0.03 0.03 0.03 82 1008.7